[{"header": {"dx": 0.06612293990616946, "dy": 0.0552356325346848, "nx": 98, "ny": 59, "la1": 35.046912555036876, "la2": 31.78801023549047, "lo1": -121.43107172385933, "lo2": -114.95102361305473, "refTime": "2026040722", "parameterCategory": 1, "parameterNumber": 2}, "data": [9.19, 9.8, 9.8, 10.69, 10.69, 10.94, 10.88, 10.88, 11.16, 11.07, 10.96, 9.63, 10.96, 10.18, 9.68, 9.35, 9.34, 8.44, 4.74, 0.0, -1.49, -1.49, -3.0, -2.8, -2.8, -3.91, -3.91, -3.91, -3.91, -3.22, -2.16, -1.99, -1.05, 0.0, 1.05, 2.99, 3.47, 3.72, 4.29, 4.74, 5.82, 6.99, 8.18, 8.73, 10.24, 10.04, 11.03, 10.28, 10.01, 10.04, 9.6, 9.75, 9.68, 9.35, 9.39, 8.44, 7.08, 5.51, 4.98, 4.4, 4.4, 3.72, 3.2, 3.2, 3.82, 4.34, 4.34, 4.34, 4.24, 3.2, 1.9, -0.0, -0.0, -0.0, -0.0, 2.24, 0.0, 0.0, 0.0, 0.0, 0.0, 1.4, 2.53, 2.84, 2.53, 3.47, 4.47, 5.81, 5.81, 5.4, 2.99, 1.03, 1.03, 0.96, 1.14, 1.14, 1.05, -1.05, 9.19, 9.8, 10.09, 10.69, 10.69, 10.94, 11.23, 10.88, 11.16, 11.07, 9.86, 10.29, 10.04, 9.74, 10.18, 9.54, 8.33, 9.76, 8.06, 1.84, -1.49, -1.49, -2.82, -3.4, -2.8, -3.47, -3.47, -3.72, -3.72, -3.0, -2.8, -1.98, -0.96, 0.0, 0.96, 2.8, 3.55, 3.55, 3.55, 4.42, 5.69, 6.95, 8.49, 8.93, 9.56, 9.89, 9.62, 9.0, 8.73, 8.79, 9.03, 9.24, 9.49, 8.82, 8.94, 8.94, 8.0, 6.64, 5.73, 5.26, 4.82, 4.34, 4.02, 3.58, 4.02, 4.47, 4.47, 4.47, 4.34, 4.24, 3.2, 2.68, 1.79, 1.79, 2.24, 2.68, 2.21, 0.0, 0.0, 0.0, 0.0, 1.4, 2.53, 2.84, 2.53, 3.47, 4.47, 5.81, 5.81, 5.4, 2.99, 1.03, 1.03, 0.96, 1.14, 1.14, 1.05, -1.05, 9.19, 9.8, 10.09, 10.09, 10.69, 10.69, 10.94, 11.23, 11.16, 10.51, 9.3, 7.73, 9.67, 10.0, 9.08, 9.24, 9.06, 9.49, 9.42, 7.28, 0.0, -1.49, -1.49, -2.82, -4.14, -3.72, -3.72, -3.72, -2.64, -2.82, -2.67, -1.73, -0.95, 0.0, 1.03, 2.82, 2.82, 3.4, 3.45, 4.34, 5.64, 7.44, 8.95, 9.11, 9.24, 8.76, 8.31, 7.35, 7.41, 7.81, 7.81, 8.4, 8.56, 8.77, 8.46, 8.94, 8.05, 7.6, 6.64, 5.73, 5.26, 4.82, 4.47, 4.47, 4.47, 4.77, 4.92, 4.92, 4.92, 4.47, 4.02, 3.58, 1.9, 2.24, 2.68, 3.13, 3.13, 0.0, 0.0, 0.0, 0.0, 1.4, 2.53, 2.53, 2.53, 2.98, 4.15, 5.73, 5.81, 4.29, 1.03, -0.0, 0.96, 0.96, 2.16, 2.99, 2.4, -0.0, 9.19, 9.8, 10.09, 10.09, 10.69, 10.69, 10.94, 11.23, 10.88, 10.23, 9.02, 7.81, 9.4, 8.88, 9.03, 9.36, 9.36, 9.77, 9.9, 8.8, 4.58, 0.0, -1.49, -2.82, -3.55, -4.14, -3.72, -2.64, -1.84, -1.84, -1.75, -1.67, -1.84, -1.32, 0.0, 1.58, 2.69, 3.87, 4.25, 4.87, 7.25, 8.99, 8.99, 8.05, 8.3, 7.78, 7.76, 7.2, 6.82, 7.2, 7.03, 8.17, 8.06, 8.29, 8.45, 8.44, 8.05, 7.6, 6.71, 6.17, 5.73, 5.26, 4.92, 4.92, 4.92, 4.82, 5.26, 4.82, 4.85, 4.57, 4.98, 3.72, 1.6, 0.0, 1.58, 3.13, 3.13, 0.0, -1.6, -1.9, 0.0, 2.8, 2.53, 2.53, 2.84, 3.72, 4.98, 5.26, 4.4, 2.16, -0.0, -0.0, 0.96, 0.96, 2.99, 4.11, 3.22, -0.0, 9.19, 9.19, 9.8, 10.09, 10.36, 10.69, 10.94, 10.94, 10.88, 10.59, 9.02, 7.55, 8.38, 8.82, 9.03, 9.42, 9.27, 10.0, 9.65, 10.0, 7.56, 1.32, -1.58, -3.15, -3.4, -4.37, -3.15, -2.99, -1.32, 0.0, 0.0, -0.81, -0.85, -0.85, 0.0, 1.33, 2.7, 3.92, 5.11, 6.6, 7.45, 8.31, 8.3, 7.82, 7.48, 7.68, 7.81, 8.17, 8.06, 8.06, 8.06, 8.06, 8.06, 7.85, 8.0, 8.0, 8.05, 7.6, 6.71, 6.26, 5.81, 5.73, 5.36, 5.36, 5.36, 5.36, 5.26, 5.7, 5.73, 5.51, 4.98, 3.22, 0.88, 0.0, 0.0, 1.2, 3.13, 0.0, -1.6, -1.9, 0.0, 3.2, 3.2, 3.2, 3.82, 4.47, 4.92, 4.4, 1.99, -0.0, -0.0, 1.03, 1.03, 1.98, 3.91, 4.89, 4.98, 1.08, 9.19, 9.19, 9.8, 9.8, 10.36, 10.69, 10.69, 10.94, 10.88, 10.3, 8.78, 6.95, 8.03, 8.82, 9.6, 9.42, 9.42, 9.81, 9.67, 9.66, 8.73, 3.45, -1.26, -1.47, -2.69, -2.69, -2.69, -1.4, -1.4, 0.0, 0.0, 0.89, 1.6, 0.85, 0.0, 0.0, 1.75, 4.25, 5.11, 4.91, 4.87, 6.3, 6.7, 7.59, 8.38, 8.42, 8.43, 8.72, 9.24, 8.9, 8.9, 8.33, 8.29, 7.85, 8.0, 7.55, 7.6, 7.15, 6.71, 6.26, 5.81, 5.73, 5.73, 5.73, 5.81, 5.81, 5.81, 5.73, 5.73, 6.17, 5.4, 2.2, 0.0, 0.0, 0.0, 0.0, 0.0, 0.0, -1.4, -1.6, 0.0, 2.8, 3.13, 3.13, 3.2, 3.16, 3.22, 2.6, 1.03, -0.0, -0.0, 1.03, 1.98, 3.91, 5.24, 6.0, 4.98, 2.2, 9.19, 9.19, 9.8, 9.8, 10.09, 10.69, 10.69, 10.94, 10.65, 10.06, 7.9, 6.34, 7.68, 9.03, 10.62, 9.77, 10.0, 10.43, 10.04, 9.92, 9.92, 7.27, 0.89, -1.94, -1.33, -1.47, -1.47, -1.26, -1.33, -0.94, 0.0, 1.75, 4.34, 4.5, 2.51, 0.0, 0.95, 3.4, 2.6, 2.37, 2.32, 2.52, 5.0, 6.5, 7.59, 7.76, 8.43, 8.95, 9.24, 9.97, 9.32, 8.29, 8.29, 8.0, 7.54, 7.1, 7.15, 6.71, 6.71, 6.26, 5.73, 5.26, 5.73, 5.73, 5.73, 5.73, 5.81, 5.81, 5.81, 5.81, 4.92, 3.13, 0.0, -1.6, -1.6, -1.6, -1.6, 0.0, -1.6, -3.2, 0.0, 2.24, 1.6, 1.41, 0.96, 1.55, 1.98, 1.98, 1.03, 1.03, 0.76, 1.7, 3.22, 4.89, 6.0, 6.45, 5.37, 3.22, 9.19, 9.19, 9.8, 9.8, 9.8, 10.69, 10.69, 10.69, 10.36, 9.72, 7.6, 5.45, 7.27, 9.16, 10.55, 9.27, 10.23, 11.2, 10.73, 10.66, 10.66, 10.8, 8.82, 2.67, 0.0, -1.32, -1.49, -1.4, -1.26, -1.39, 0.0, 1.28, 3.92, 5.1, 3.2, 0.88, 1.34, -0.0, 0.0, 0.0, 0.0, 1.18, 2.6, 3.87, 4.96, 5.86, 6.79, 7.81, 8.21, 9.04, 8.06, 8.29, 8.44, 8.0, 7.1, 6.64, 6.64, 6.71, 6.26, 5.81, 5.36, 5.36, 5.81, 5.26, 5.26, 5.73, 6.17, 5.73, 5.73, 5.73, 4.98, 2.48, -0.0, -1.6, -2.21, -1.79, 0.0, -1.27, -2.53, -3.82, -3.58, -1.9, -0.0, -0.0, -0.0, 0.88, 1.83, 1.99, 1.14, 0.96, 0.81, 2.53, 4.11, 5.6, 6.16, 6.0, 4.89, 3.22, 9.19, 9.19, 9.5, 9.8, 9.8, 10.4, 10.69, 10.69, 10.36, 9.46, 7.32, 5.7, 7.19, 7.36, 8.07, 8.53, 9.69, 10.28, 10.66, 10.41, 10.41, 11.33, 11.36, 9.81, 5.58, 4.47, 3.58, 0.0, 0.0, 0.0, 0.0, 1.28, 4.2, 6.08, 4.98, 3.2, -0.0, -1.49, -1.84, -3.79, 0.0, 1.33, 2.58, 2.69, 3.91, 4.29, 6.44, 7.47, 7.12, 7.85, 8.85, 8.0, 8.45, 8.45, 7.54, 7.1, 6.45, 6.17, 5.73, 5.81, 5.81, 5.81, 5.36, 4.92, 4.92, 5.36, 5.81, 5.73, 5.7, 5.4, 4.98, 2.84, -0.0, -0.0, -0.0, -0.0, 2.24, 0.0, -3.82, -3.9, -4.47, -3.13, -1.9, -1.2, -0.0, -0.0, 1.13, 2.0, 1.8, 1.66, 2.0, 2.68, 4.22, 5.6, 6.0, 4.89, 3.91, 3.0, 9.19, 9.19, 9.5, 9.8, 9.8, 10.12, 10.4, 10.69, 10.36, 9.17, 7.61, 6.96, 6.97, 6.33, 7.44, 7.19, 7.89, 8.72, 9.5, 8.54, 7.51, 8.24, 10.41, 9.97, 7.45, 5.72, 5.58, 5.51, 4.11, 1.4, 0.0, 0.0, 3.58, 4.11, 4.74, 4.74, -0.0, -0.0, -0.0, -0.0, 1.79, 2.23, 3.63, 4.89, 5.6, 5.94, 6.71, 7.6, 8.0, 8.0, 8.49, 8.49, 8.94, 8.9, 7.85, 7.37, 6.57, 5.94, 5.94, 5.51, 5.51, 5.26, 6.26, 4.92, 5.36, 5.81, 5.81, 5.36, 4.92, 5.36, 4.77, 2.98, 1.2, -0.0, -0.0, 1.58, 3.13, 2.24, -2.68, -3.58, -3.39, -2.97, -2.68, -1.79, 1.34, 1.34, 1.58, 1.9, 1.2, 2.21, 2.98, 3.6, 4.29, 4.89, 5.24, 4.74, 3.72, 3.72, 8.87, 9.19, 9.19, 9.8, 9.8, 10.12, 10.4, 10.69, 10.36, 9.48, 8.24, 8.23, 8.59, 8.87, 9.36, 8.3, 7.63, 4.83, 4.83, 4.83, 6.7, 6.48, 5.4, 3.72, 2.8, 2.98, 3.48, 3.48, 4.4, 4.47, -0.0, -0.0, -0.0, 2.16, 2.2, 3.22, 3.72, 2.82, 3.72, 4.58, 4.74, 5.2, 5.81, 7.15, 7.15, 7.1, 7.37, 7.85, 8.29, 8.45, 8.49, 8.49, 8.45, 8.06, 7.76, 7.2, 6.18, 5.95, 5.58, 4.98, 4.92, 4.4, 4.29, 4.98, 6.26, 6.64, 6.45, 5.94, 5.73, 5.26, 4.92, 3.13, 2.24, 1.58, 1.58, 1.58, 1.79, -0.0, -1.4, -2.21, -2.24, -2.4, -1.98, -1.2, -1.0, 0.0, 0.0, 1.79, 1.79, 2.24, 2.8, 3.35, 3.48, 3.79, 4.89, 4.43, 4.19, 3.72, 8.87, 9.19, 9.19, 9.5, 9.8, 9.8, 10.12, 10.4, 10.09, 9.77, 8.87, 8.87, 9.5, 10.4, 10.8, 10.41, 8.72, 6.98, 6.23, 6.32, 5.89, 3.44, 0.42, -0.0, -1.7, -2.0, -1.8, -0.4, -0.0, -0.0, 1.7, 2.16, 1.98, 1.99, 2.2, 2.76, 4.43, 5.37, 5.37, 6.18, 6.8, 6.57, 6.45, 7.15, 7.15, 6.17, 7.45, 7.45, 8.05, 8.49, 7.54, 7.85, 7.81, 7.12, 6.55, 6.11, 5.69, 4.58, 2.99, 2.68, 1.05, 1.96, 3.77, 5.37, 6.57, 7.15, 6.57, 5.95, 5.58, 4.89, 3.93, 2.84, 1.98, 1.27, 0.0, 0.0, -1.9, -2.68, -1.2, -0.0, -0.0, 2.24, -2.21, -2.23, -0.87, -0.99, 0.0, 0.0, 1.34, 1.34, 1.79, 2.4, 2.6, 4.0, 4.6, 4.54, 4.43, 4.74, 8.87, 9.19, 9.19, 9.5, 9.8, 9.8, 10.12, 10.12, 9.8, 9.8, 9.19, 9.21, 9.5, 10.43, 12.09, 13.23, 13.12, 11.87, 10.18, 9.57, 9.24, 7.15, 3.58, -0.0, -0.99, -1.58, -1.49, -1.26, -0.57, -0.0, 0.98, 2.76, 2.99, 2.99, 2.99, 3.47, 4.01, 5.49, 6.21, 6.7, 6.94, 6.45, 6.2, 5.36, 5.36, 5.09, 5.21, 6.51, 7.15, 7.6, 6.21, 6.51, 6.2, 4.92, 6.26, 6.26, 5.58, 1.73, -1.08, -3.22, -0.0, 1.84, 3.6, 4.42, 5.37, 6.88, 6.65, 6.18, 4.87, 3.72, 3.22, 1.99, 1.05, 0.0, -1.27, -3.2, -3.58, -3.58, -2.68, 1.34, 2.24, 3.13, 1.79, -0.0, -1.6, -1.27, -2.23, -2.21, 0.0, 0.0, 0.0, 1.34, 2.24, 3.39, 4.0, 4.29, 4.54, 4.89, 8.87, 9.19, 9.19, 9.5, 9.8, 9.8, 10.12, 10.12, 10.12, 9.8, 9.8, 9.8, 9.82, 10.43, 11.92, 13.48, 14.15, 14.03, 13.26, 12.64, 12.31, 11.05, 7.98, 3.54, 0.8, -0.0, -0.0, -0.0, -0.0, -0.0, 0.71, 2.0, 4.43, 3.63, 4.43, 4.43, 4.81, 6.21, 6.7, 7.1, 7.1, 6.71, 6.71, 5.81, 4.4, 1.84, 2.76, 5.58, 6.51, 6.94, 7.15, 6.71, 4.11, 1.52, 3.0, 3.35, 6.51, 4.8, -4.92, -3.72, -0.85, 1.26, 2.69, 2.99, 3.55, 4.74, 5.73, 5.2, 4.56, 1.98, 1.03, 0.0, 0.0, -2.84, -3.58, -2.84, -1.6, -3.13, -2.8, 0.0, 0.0, 2.24, -0.0, -0.0, 1.79, 2.24, -2.84, -3.72, -1.4, 0.0, -1.2, 0.0, 1.34, 2.24, 2.97, 4.0, 4.98, 4.98, 8.87, 8.87, 9.19, 9.5, 9.8, 9.8, 9.8, 10.12, 10.12, 9.8, 9.8, 9.8, 10.12, 10.43, 11.92, 12.8, 13.75, 14.39, 14.44, 13.81, 13.73, 12.94, 10.94, 7.43, 4.47, 3.09, 3.07, 3.07, 3.07, 2.91, 2.91, 2.68, 5.6, 5.72, 5.72, 5.37, 5.69, 6.21, 8.38, 7.15, 7.15, 7.6, 6.71, 5.64, 3.22, 1.32, 1.32, 3.47, 4.43, 5.21, 6.0, 5.58, 3.0, 1.63, 2.8, 4.43, 6.0, 4.82, 2.23, -0.0, -0.0, 1.58, 2.82, 3.4, 4.56, 4.56, 5.06, 6.51, 6.26, 1.63, -0.95, -1.98, -3.72, -2.48, -0.96, -0.0, 0.96, 1.27, 1.79, 0.0, 0.0, 0.0, -1.79, 1.79, 1.79, 2.53, 2.24, -2.21, -1.2, 0.0, -2.53, -2.98, -2.0, 1.34, 2.68, 4.02, 4.34, 4.34, 8.87, 8.87, 9.19, 9.5, 9.5, 9.8, 9.8, 10.12, 10.12, 10.12, 10.12, 10.12, 10.4, 10.72, 11.33, 12.16, 12.93, 13.36, 13.99, 14.44, 14.23, 13.26, 12.18, 9.68, 8.03, 7.15, 7.13, 7.13, 6.68, 5.79, 5.34, 5.33, 5.24, 7.06, 5.72, 5.15, 6.18, 7.12, 7.94, 7.6, 6.26, 5.81, 6.51, 4.74, 3.0, 1.4, 1.4, 3.0, 4.74, 4.43, 4.43, 4.43, 4.02, 3.47, 4.11, 5.51, 6.51, 6.51, 6.08, 4.37, 3.4, 3.68, 4.02, 4.74, 4.74, 5.06, 4.89, 6.44, 7.45, 3.72, -1.84, -4.82, -3.22, -0.95, -0.0, 1.73, 2.82, 3.91, 3.35, 0.0, -1.27, -2.84, -2.53, -2.21, 0.0, 2.24, 3.82, 3.13, 2.24, 2.24, -2.8, -2.98, 0.0, 2.24, 2.24, 2.68, 2.68, 2.68, 8.87, 8.87, 9.19, 9.5, 9.5, 9.8, 9.8, 10.12, 10.12, 10.12, 10.12, 10.4, 10.4, 10.99, 11.33, 11.87, 12.37, 12.82, 13.23, 13.82, 13.81, 13.26, 12.3, 10.71, 9.83, 10.28, 10.28, 9.83, 9.39, 8.49, 8.05, 7.15, 6.26, 7.5, 5.2, 4.81, 5.58, 6.4, 6.07, 5.81, 5.09, 3.22, 4.29, 3.47, 2.82, 2.82, 2.82, 4.29, 4.29, 5.36, 5.36, 4.74, 4.74, 4.74, 5.6, 6.58, 7.01, 7.06, 6.28, 5.31, 5.69, 5.72, 5.36, 5.6, 6.0, 5.51, 6.0, 6.4, 7.45, 5.21, -2.2, -2.53, -0.89, 0.89, 1.84, 3.4, 4.42, 5.06, 4.54, 3.13, -1.41, -3.48, -4.09, -2.98, -2.53, 0.0, 3.13, 2.8, 2.8, 2.24, -2.8, -2.53, -1.0, 1.79, 2.24, 1.34, 1.79, 1.79, 8.87, 8.87, 9.19, 9.19, 9.5, 9.5, 9.8, 10.12, 10.12, 10.12, 10.4, 10.4, 10.72, 10.99, 11.28, 11.52, 12.37, 12.82, 12.95, 12.83, 13.26, 13.08, 11.86, 10.73, 10.71, 10.73, 10.27, 9.32, 8.87, 8.42, 7.58, 6.68, 5.79, 4.92, 4.34, 5.4, 4.4, 5.09, 5.51, 4.84, 2.8, 3.2, 3.0, 3.2, 3.91, 4.14, 4.14, 5.37, 6.08, 6.13, 5.72, 5.72, 5.72, 5.36, 6.0, 7.01, 7.45, 7.06, 6.52, 6.52, 6.52, 7.06, 6.64, 6.51, 6.26, 5.81, 5.81, 7.15, 7.6, 7.15, 5.58, 2.67, 3.6, 4.26, 4.68, 5.24, 5.37, 5.49, 4.74, 3.48, 1.79, -3.39, -4.47, -2.97, -3.2, -3.13, -2.8, -0.0, 1.6, 2.23, 2.68, -1.9, -2.24, -0.0, -0.0, -0.0, -0.0, -0.0, 8.87, 8.87, 9.19, 9.19, 9.5, 9.5, 9.8, 9.8, 10.12, 10.12, 10.4, 10.4, 10.72, 10.99, 10.99, 13.18, 11.23, 11.44, 11.5, 11.62, 13.41, 13.88, 12.04, 12.09, 11.36, 11.84, 5.4, 8.06, 7.37, 3.13, 3.13, 3.53, 3.98, 3.98, 4.02, 3.58, 3.13, 3.13, 4.82, 5.21, 3.79, 3.49, 3.47, 4.02, 4.56, 5.69, 6.28, 6.9, 6.52, 7.06, 6.64, 5.72, 5.72, 5.72, 6.4, 6.64, 6.64, 7.06, 6.52, 7.06, 7.06, 7.01, 7.01, 5.81, 5.81, 5.81, 6.17, 6.71, 7.15, 8.48, 8.18, 8.42, 9.05, 8.43, 7.82, 7.2, 6.6, 5.49, 4.29, 4.19, 1.41, -1.27, -3.72, -2.98, -3.82, -3.72, -4.4, -3.58, -0.0, 1.13, 3.72, 2.21, -1.4, -1.13, -0.0, -0.0, -0.0, -0.0, 8.87, 8.87, 9.19, 9.19, 9.19, 9.5, 9.5, 9.8, 10.12, 10.12, 10.4, 10.4, 10.99, 10.99, 10.99, 11.28, 11.23, 9.72, 10.58, 11.64, 14.3, 13.02, 11.75, 11.9, 10.91, 9.43, 5.49, 1.26, 0.0, -0.6, -0.0, 0.89, 1.79, 2.63, 3.13, 3.13, 3.58, 3.58, 4.02, 3.87, 3.7, 3.35, 3.35, 3.43, 4.0, 6.52, 6.52, 7.06, 7.06, 7.06, 5.72, 5.72, 5.72, 5.72, 5.6, 6.0, 7.06, 5.43, 6.57, 7.94, 7.6, 7.15, 7.15, 7.15, 5.81, 5.73, 5.73, 6.71, 7.6, 8.29, 9.49, 10.68, 11.8, 11.51, 10.28, 8.49, 6.45, 4.89, 3.72, 3.72, 3.91, 2.16, -0.0, -1.08, -2.48, -2.84, -2.84, -3.58, -2.53, -0.0, 2.23, 1.08, -0.0, -0.0, -0.0, 1.19, 2.48, 2.48, 8.87, 8.87, 8.87, 9.19, 9.19, 9.5, 9.5, 9.8, 10.12, 10.12, 10.4, 10.72, 10.99, 10.99, 11.33, 11.58, 11.23, 9.42, 8.22, 10.84, 12.52, 10.15, 9.94, 9.66, 9.37, 7.35, 4.11, 1.2, -0.0, -0.57, -0.0, 0.63, 1.34, 2.24, 3.13, 3.58, 3.58, 4.02, 4.02, 4.02, 3.98, 3.87, 3.6, 3.6, 3.72, 6.52, 7.06, 7.06, 7.45, 6.64, 5.72, 4.29, 5.06, 5.72, 5.72, 5.21, 6.21, 6.28, 7.94, 8.05, 7.6, 7.6, 7.15, 7.15, 5.73, 5.73, 5.73, 6.26, 7.15, 8.0, 9.24, 10.6, 11.62, 11.05, 9.06, 6.94, 2.53, 1.99, 2.8, 2.8, 3.72, 3.91, 2.16, 0.88, -0.0, -0.0, -0.0, -0.88, -2.95, -2.53, -0.0, -0.0, -0.0, -0.0, 0.88, 2.0, 3.16, 3.16, 8.87, 8.87, 8.87, 9.19, 9.19, 9.19, 9.5, 9.8, 9.8, 10.12, 10.4, 10.72, 10.99, 10.99, 11.58, 11.58, 10.94, 9.72, 9.17, 10.09, 10.23, 9.21, 7.44, 7.17, 7.73, 8.15, 7.26, 5.34, 3.13, 1.34, 0.95, 1.2, 1.79, 2.24, 3.13, 3.58, 3.58, 4.02, 4.02, 4.02, 3.98, 3.98, 3.82, 3.6, 3.72, 4.0, 7.63, 7.01, 6.0, 4.74, 4.29, 4.29, 5.06, 5.72, 5.36, 5.72, 5.58, 7.12, 7.94, 8.05, 6.94, 6.94, 6.94, 6.45, 5.94, 5.51, 5.73, 6.26, 6.26, 7.89, 8.48, 9.89, 7.15, 4.11, 1.27, 1.79, -0.0, -0.0, 0.88, 1.7, 2.8, 3.47, 1.98, 1.84, 0.96, 0.96, 0.96, -0.0, -0.0, -3.93, -3.16, -0.98, -0.0, -0.0, 0.98, 2.84, 3.16, 3.16, 8.24, 8.24, 8.87, 9.19, 9.19, 9.19, 9.19, 9.8, 9.8, 10.12, 10.4, 10.72, 10.99, 10.99, 11.58, 11.87, 10.94, 10.65, 10.06, 10.88, 11.5, 10.4, 8.1, 6.03, 5.86, 6.95, 7.81, 8.17, 6.94, 4.44, 2.68, 2.24, 2.24, 2.24, 3.13, 3.58, 4.02, 4.02, 4.02, 4.02, 4.02, 3.98, 3.82, 3.6, 3.35, 3.43, 6.64, 6.51, 4.43, 2.66, 2.82, 4.56, 5.72, 5.72, 5.36, 5.36, 5.6, 6.57, 7.94, 6.71, 6.21, 6.18, 6.21, 5.58, 5.6, 5.51, 5.26, 5.36, 6.17, 6.45, 7.47, 7.47, -4.98, -4.43, -2.2, -2.4, -2.24, -1.2, -0.0, -0.0, 1.7, 1.84, 1.03, 0.89, 1.72, 0.89, 0.89, 0.95, 0.95, -0.0, -4.22, -3.35, -0.99, -0.0, 0.99, 1.98, 2.53, 2.53, 8.24, 8.24, 8.58, 8.87, 9.19, 9.19, 9.19, 9.8, 9.8, 10.12, 10.4, 10.4, 10.99, 10.99, 11.28, 11.28, 10.94, 10.65, 10.3, 11.16, 11.24, 11.6, 10.91, 8.72, 6.6, 5.89, 6.8, 7.81, 7.74, 6.94, 5.24, 3.98, 3.13, 3.13, 3.13, 3.58, 3.58, 4.02, 4.02, 4.02, 4.02, 3.98, 3.87, 3.39, 3.2, 3.6, 6.0, 5.36, 4.29, 2.82, 3.91, 5.37, 5.72, 5.72, 5.36, 6.0, 4.98, 5.6, 7.06, 6.51, 4.6, 3.72, 4.29, 3.91, 3.93, 4.02, 4.4, 6.0, 5.6, 6.45, 6.71, 3.48, -4.92, -4.98, -4.11, -4.0, -4.47, -2.2, -1.7, -0.88, -0.0, -0.0, -0.0, 0.82, 1.72, 0.89, 0.95, 0.95, 1.84, 1.98, -3.16, -4.38, -3.39, -1.9, -0.0, -0.0, 1.2, 1.2, 8.24, 8.24, 8.58, 8.58, 8.58, 9.19, 9.19, 9.8, 9.8, 9.8, 10.4, 10.4, 10.99, 11.28, 11.28, 10.94, 11.23, 10.65, 10.3, 10.59, 11.07, 11.5, 11.6, 10.42, 8.79, 7.51, 6.6, 7.01, 7.09, 7.26, 6.51, 5.7, 4.88, 3.98, 3.98, 3.58, 4.02, 4.02, 4.02, 4.02, 4.02, 3.98, 3.98, 3.39, 3.39, 3.39, 3.87, 4.4, 4.07, 3.48, 3.2, 5.37, 5.72, 5.72, 5.72, 6.0, 5.6, 4.98, 6.0, 6.0, 5.36, 3.16, 3.22, 2.48, 1.9, 1.99, 2.64, 4.58, 5.95, 6.71, 7.55, 7.6, 4.47, -3.22, -3.79, -4.34, -3.9, -3.16, -3.22, -2.76, -1.55, -0.81, -0.0, -0.0, 1.03, 1.03, 1.72, 1.84, 3.0, 2.47, 2.99, -3.39, -4.02, -3.82, -1.9, -0.0, -0.0, -0.0, 8.24, 8.24, 8.24, 8.58, 8.58, 9.19, 9.19, 9.77, 10.09, 9.8, 10.4, 10.4, 10.94, 11.28, 11.28, 11.23, 10.88, 10.3, 10.3, 10.59, 10.8, 11.34, 11.36, 11.31, 10.21, 9.21, 8.0, 7.09, 6.79, 6.79, 6.51, 6.04, 5.72, 5.26, 4.8, 4.44, 4.44, 4.02, 4.02, 3.58, 3.58, 3.58, 3.54, 3.98, 3.54, 3.53, 3.98, 4.3, 4.11, 3.35, 2.84, 2.84, 4.74, 4.29, 5.37, 5.72, 6.0, 6.07, 5.6, 6.4, 6.64, 6.71, 4.47, 2.8, -0.0, 0.89, 3.6, 4.42, 6.16, 6.71, 7.1, 8.85, 6.2, 0.0, -4.11, -4.98, -4.92, -4.15, -4.29, -4.11, -2.99, -1.7, -0.0, -0.0, -0.0, 0.89, 1.84, 3.0, 3.0, 2.29, 2.8, -0.0, -2.53, -3.35, -2.98, -1.6, -0.0, -0.0, 7.96, 7.96, 7.96, 8.58, 8.58, 8.87, 9.48, 9.48, 10.09, 10.09, 10.36, 10.69, 10.69, 10.94, 10.94, 11.23, 10.88, 10.3, 10.59, 10.59, 10.87, 10.7, 10.96, 10.83, 10.91, 10.21, 9.51, 8.48, 7.51, 6.79, 6.94, 6.94, 6.94, 6.94, 6.94, 6.47, 5.99, 5.26, 4.88, 4.02, 3.58, 3.58, 3.58, 3.98, 4.02, 4.02, 4.02, 3.58, 2.91, 2.5, 2.53, 2.23, 2.51, 2.58, 4.43, 5.21, 6.64, 6.0, 4.89, 5.6, 7.89, 6.94, 7.45, 3.22, 1.2, 1.75, 3.6, 6.18, 6.57, 7.1, 7.15, 7.55, 8.0, 6.45, 0.0, -4.11, -5.94, -5.36, -4.98, -4.98, -4.11, -2.76, -0.81, -0.0, -0.0, -0.0, 1.98, 3.0, 3.0, 2.12, 1.72, 2.47, -0.0, -0.0, -0.98, -0.99, -0.0, -0.0, 7.96, 7.96, 7.96, 7.96, 8.87, 8.87, 9.17, 9.48, 9.77, 10.09, 10.36, 10.69, 10.69, 10.94, 11.23, 11.23, 10.88, 10.59, 10.59, 10.23, 10.51, 10.51, 10.41, 10.68, 10.55, 10.4, 10.21, 9.71, 9.01, 8.48, 7.74, 7.69, 7.26, 7.4, 7.4, 6.94, 6.47, 6.04, 5.26, 4.88, 4.02, 3.58, 4.02, 4.47, 4.47, 3.7, 3.07, 3.13, 2.24, 1.9, 1.88, 2.23, 2.23, 2.23, 2.79, 4.98, 6.0, 5.36, 3.91, 5.21, 6.64, 7.6, 7.1, 4.58, 2.69, 3.7, 6.11, 6.8, 7.54, 7.6, 7.6, 8.0, 8.29, 8.33, 6.94, 3.2, -4.47, -6.26, -6.26, -5.29, -4.6, -2.51, -0.59, -0.0, -0.0, -0.0, 1.7, 2.8, 1.98, 1.72, 1.84, 1.84, 1.84, 1.6, 0.81, -0.0, -0.0, -0.0, 7.96, 7.96, 8.24, 8.24, 8.56, 8.87, 9.17, 9.48, 9.48, 9.77, 10.36, 10.36, 10.69, 10.69, 11.23, 10.88, 10.65, 10.59, 10.59, 10.23, 10.51, 10.51, 10.41, 10.68, 10.3, 10.16, 10.02, 9.88, 9.3, 9.21, 8.48, 8.0, 8.17, 7.74, 7.74, 7.4, 6.94, 6.51, 6.04, 5.26, 4.88, 4.02, 4.02, 5.81, 5.81, 2.63, 1.61, 0.0, 0.45, 1.26, 1.61, 2.23, 2.23, 2.53, 2.79, 2.79, 5.6, 4.74, 4.43, 4.89, 6.64, 7.6, 6.45, 4.68, 3.63, 5.1, 6.01, 7.2, 7.6, 7.55, 7.85, 7.85, 8.29, 8.33, 8.77, 7.1, 2.16, -3.16, -5.81, -5.81, -4.82, -2.5, -1.2, -0.0, -0.0, -0.0, 0.88, 1.99, 1.84, 1.84, 1.84, 1.84, 2.6, 2.47, 2.6, 1.66, 1.4, 1.4, 7.61, 7.61, 8.24, 8.24, 8.24, 8.56, 8.87, 9.17, 9.48, 9.77, 9.77, 10.36, 10.36, 10.65, 10.65, 10.65, 10.3, 10.59, 10.23, 10.23, 10.51, 10.15, 9.86, 9.86, 9.76, 9.76, 9.63, 9.88, 9.6, 9.42, 9.21, 8.72, 8.48, 8.0, 7.74, 7.26, 7.26, 6.94, 6.47, 6.04, 5.24, 4.44, 4.44, 4.47, 4.44, 5.36, 1.13, -0.65, -0.45, 0.57, 1.88, 2.23, 2.23, 3.14, 2.79, 2.79, 3.07, 3.14, 4.54, 4.98, 6.64, 7.1, 6.21, 4.26, 5.24, 6.11, 6.11, 7.67, 6.2, 6.88, 6.8, 7.12, 7.37, 7.85, 8.29, 6.64, 3.0, -0.0, -3.72, -5.36, -4.92, -2.63, -1.86, -0.57, -0.0, 0.87, 0.87, 1.8, 2.41, 2.84, 2.84, 2.2, 2.53, 2.8, 3.22, 2.53, 1.8, 1.8, 7.61, 7.61, 7.95, 8.24, 8.24, 8.56, 8.87, 9.17, 9.17, 9.77, 9.77, 10.09, 10.36, 10.65, 10.65, 10.65, 10.3, 10.59, 10.23, 10.23, 10.51, 9.94, 9.59, 9.86, 9.76, 9.76, 9.63, 9.35, 8.96, 9.2, 9.2, 9.01, 8.79, 8.48, 8.48, 8.17, 7.74, 7.26, 6.79, 6.47, 5.57, 5.24, 4.77, 4.44, 4.44, 6.2, 3.9, 0.45, 0.95, 1.61, 2.53, 2.79, 2.79, 2.79, 2.79, 2.79, 3.07, 3.07, 3.07, 4.98, 6.02, 6.94, 6.82, 6.11, 6.82, 6.6, 6.0, 6.8, 6.0, 6.26, 5.26, 6.26, 7.1, 8.0, 8.49, 5.81, -0.0, -0.95, -0.96, -4.34, -4.38, -3.95, -2.24, -1.34, -0.0, 0.95, 1.7, 3.2, 3.6, 3.9, 2.97, 2.21, 1.8, 2.53, 3.63, 2.53, 1.8, 1.8, 7.61, 7.61, 7.61, 7.95, 8.24, 8.56, 8.56, 9.17, 9.17, 9.48, 9.77, 9.77, 9.77, 10.3, 10.3, 10.3, 10.3, 10.59, 10.23, 10.01, 9.94, 9.94, 9.59, 9.3, 9.3, 9.21, 9.1, 8.55, 10.63, 8.43, 8.82, 8.82, 8.8, 9.01, 8.72, 8.48, 8.0, 7.58, 7.26, 6.79, 6.04, 5.57, 5.24, 4.8, 5.09, 6.16, 5.81, 5.33, 4.6, 4.11, 3.88, 3.35, 3.2, 3.07, 3.2, 3.6, 3.6, 3.2, 3.32, 3.39, 5.94, 6.57, 7.2, 6.94, 7.63, 7.37, 6.65, 7.15, 7.01, 7.45, 6.0, 6.21, 8.0, 9.46, 9.39, 6.71, -0.0, -1.99, -2.76, -3.6, -4.38, -4.15, -3.6, -2.12, -0.63, 0.95, 2.12, 3.13, 4.92, 4.47, 3.13, 1.58, 1.13, 2.0, 3.35, 2.53, 1.8, 1.8, 7.33, 7.33, 7.61, 7.95, 7.95, 8.24, 8.56, 8.56, 9.17, 9.17, 9.44, 9.77, 10.06, 10.06, 10.06, 10.3, 10.3, 10.01, 10.01, 10.01, 9.94, 9.94, 9.37, 9.3, 9.3, 9.21, 8.84, 8.93, 8.55, 10.04, 6.79, 7.35, 7.9, 8.28, 8.51, 8.72, 8.3, 8.0, 7.51, 7.21, 6.36, 6.04, 5.57, 5.57, 5.57, 6.16, 6.71, 6.71, 6.16, 5.7, 4.77, 3.87, 3.39, 3.39, 3.2, 3.6, 3.82, 3.6, 3.82, 3.39, 4.3, 6.57, 7.63, 6.7, 7.37, 7.54, 7.15, 7.15, 8.05, 8.38, 7.76, 7.82, 8.06, 9.35, 10.28, 8.94, 4.98, -0.0, -3.58, -3.9, -3.9, -3.58, -3.22, -2.53, -0.71, 0.0, 1.9, 3.07, 5.36, 5.36, 3.13, -0.0, -0.0, -0.0, 2.0, 3.22, 2.0, 2.0, 7.33, 7.33, 7.33, 7.61, 7.95, 7.95, 8.56, 8.85, 9.13, 9.46, 9.46, 9.72, 9.72, 10.06, 10.06, 9.72, 10.01, 10.01, 10.01, 10.01, 9.66, 9.59, 9.37, 9.3, 8.94, 9.21, 8.84, 8.65, 9.21, 8.43, 7.23, 6.15, 6.51, 7.23, 7.76, 8.51, 8.3, 8.22, 7.58, 7.09, 6.79, 6.3, 5.88, 5.99, 5.99, 5.99, 6.16, 6.71, 6.26, 5.81, 4.88, 3.98, 3.97, 3.39, 3.39, 3.82, 3.87, 3.87, 3.87, 3.87, 6.64, 6.64, 6.64, 7.06, 6.64, 7.1, 7.15, 6.71, 8.05, 8.38, 7.63, 9.03, 9.29, 8.94, 10.28, 10.25, 8.77, 4.4, -2.4, -3.58, -3.58, -2.98, -2.84, -2.53, -1.74, 0.0, 1.16, 2.84, 5.51, 5.29, 3.13, -1.9, -2.21, -0.0, 0.87, 2.53, 1.83, 1.83, 6.97, 6.97, 7.33, 7.33, 7.95, 7.95, 7.95, 8.85, 8.85, 9.46, 9.46, 9.46, 9.46, 9.46, 9.46, 9.72, 10.01, 10.01, 10.01, 10.01, 9.66, 9.37, 9.02, 9.3, 8.73, 8.73, 9.01, 8.65, 8.84, 8.55, 8.15, 7.08, 6.41, 6.41, 6.7, 7.23, 8.0, 7.6, 7.81, 7.51, 7.01, 6.79, 6.3, 5.88, 6.04, 6.04, 6.04, 6.16, 6.23, 5.36, 4.92, 4.47, 3.98, 3.53, 3.53, 3.82, 3.87, 3.87, 4.3, 4.3, 4.3, 6.64, 6.64, 6.64, 7.45, 7.5, 6.65, 7.1, 7.54, 7.55, 7.42, 8.82, 9.29, 9.35, 10.28, 10.7, 10.58, 8.0, 2.68, -3.58, -3.13, -2.4, -2.21, -2.98, -2.53, -0.61, 1.13, 3.79, 4.98, 4.82, 2.68, -2.8, -3.35, -2.21, -0.0, 0.98, 2.53, 2.53, 6.97, 6.97, 7.33, 7.33, 7.33, 7.95, 7.95, 8.85, 8.85, 8.85, 9.17, 9.17, 9.46, 9.17, 9.17, 9.46, 9.66, 10.01, 10.01, 9.66, 9.66, 9.37, 9.02, 9.3, 8.73, 8.73, 9.01, 8.65, 8.65, 8.55, 8.43, 8.28, 7.48, 6.56, 6.56, 6.95, 6.95, 7.08, 7.31, 7.31, 7.01, 6.6, 6.3, 6.3, 6.3, 6.3, 6.3, 6.04, 5.7, 5.33, 4.89, 4.47, 4.02, 4.02, 3.98, 3.98, 3.98, 3.98, 4.44, 4.34, 4.34, 4.3, 7.01, 6.64, 7.1, 8.38, 7.37, 8.0, 8.0, 7.6, 8.49, 7.54, 9.76, 9.8, 10.73, 10.28, 10.28, 9.39, 4.4, -2.4, -3.13, -2.0, -2.4, -2.21, -1.98, -0.87, 0.98, 4.34, 4.92, 4.47, 2.68, -2.53, -3.35, -2.84, -1.2, -0.0, 2.0, 2.0, 6.98, 6.98, 7.26, 7.33, 7.33, 7.95, 7.95, 8.56, 8.56, 8.56, 8.56, 9.17, 8.87, 9.17, 9.17, 9.46, 9.66, 10.01, 10.01, 9.66, 9.42, 9.37, 9.02, 8.78, 8.73, 8.73, 8.38, 8.65, 8.65, 8.55, 8.55, 8.43, 8.28, 7.6, 7.08, 6.8, 6.56, 6.56, 6.56, 6.8, 6.8, 6.51, 6.3, 8.06, 5.6, 5.89, 5.89, 6.0, 5.81, 5.09, 4.8, 4.44, 4.02, 4.02, 4.02, 3.98, 3.98, 3.98, 4.44, 4.44, 4.44, 4.44, 7.01, 6.64, 7.1, 8.38, 7.1, 7.6, 8.05, 7.6, 7.6, 7.6, 9.39, 10.66, 10.73, 10.25, 9.79, 8.77, 4.98, -2.4, -3.39, -2.4, -1.2, -1.9, -1.2, 0.0, 1.58, 3.13, 4.47, 4.02, 2.21, -2.84, -3.16, -2.84, -1.4, -0.0, -0.0, 1.13, 6.98, 6.98, 6.98, 7.61, 7.33, 7.61, 7.95, 7.95, 8.56, 8.56, 8.56, 8.56, 8.87, 8.87, 9.17, 9.17, 9.46, 10.01, 10.01, 9.66, 9.08, 9.37, 8.78, 8.45, 8.73, 8.73, 8.38, 8.65, 8.29, 8.55, 8.55, 8.18, 8.43, 8.15, 8.0, 7.31, 6.8, 6.8, 6.28, 6.67, 6.67, 6.28, 6.1, 8.06, 5.81, 5.37, 5.49, 5.29, 5.21, 5.31, 4.6, 4.34, 3.98, 4.02, 4.02, 4.02, 3.98, 3.98, 4.44, 4.44, 4.44, 4.44, 7.01, 6.2, 6.71, 8.05, 7.6, 7.15, 7.55, 7.55, 7.15, 8.05, 8.94, 9.83, 10.73, 9.83, 9.06, 8.56, 4.0, -2.8, -2.98, -2.21, -1.9, -2.4, -1.58, 0.0, 2.24, 3.13, 4.47, 4.02, 1.4, -2.23, -3.72, -2.53, -1.4, -0.0, -0.0, -0.0, 6.98, 6.98, 6.98, 7.61, 7.33, 7.33, 7.95, 7.95, 8.24, 8.56, 8.56, 8.56, 8.87, 8.87, 8.87, 9.17, 9.46, 9.13, 9.66, 9.42, 9.08, 9.37, 8.78, 8.45, 8.73, 8.73, 8.38, 8.65, 8.29, 8.55, 8.37, 8.0, 8.0, 8.27, 8.15, 8.0, 7.71, 6.8, 6.8, 6.28, 6.28, 6.28, 5.86, 6.1, 8.06, 5.6, 3.79, 3.22, 3.49, 4.0, 3.88, 3.82, 3.53, 3.58, 3.58, 3.58, 4.02, 4.44, 4.44, 4.88, 4.44, 4.44, 4.88, 7.6, 7.15, 7.6, 7.15, 7.15, 7.6, 7.6, 7.6, 7.6, 8.94, 9.83, 10.28, 8.94, 7.85, 5.58, 0.0, -3.39, -2.6, -2.21, -1.9, -1.9, 0.0, 1.58, 2.8, 3.82, 4.34, 3.58, -0.0, -1.13, -3.35, -2.53, -2.21, -0.0, -0.0, -0.0, 6.98, 6.98, 6.98, 6.98, 7.61, 7.33, 7.95, 7.95, 7.95, 8.24, 8.24, 8.24, 8.87, 8.87, 8.87, 8.87, 9.13, 9.13, 9.42, 9.42, 9.08, 8.78, 8.78, 8.45, 8.73, 8.73, 8.38, 8.65, 8.08, 8.08, 8.37, 8.0, 8.0, 8.27, 7.9, 8.15, 8.0, 7.48, 7.31, 6.8, 6.28, 6.03, 5.86, 6.03, 6.8, 8.17, 2.79, 1.16, 1.33, 2.23, 2.5, 2.91, 3.07, 3.13, 3.58, 3.58, 4.02, 4.47, 4.47, 4.92, 4.47, 4.47, 6.71, 7.15, 7.15, 7.6, 7.15, 8.05, 7.15, 7.6, 8.05, 8.05, 8.85, 8.85, 8.94, 8.82, 4.77, -0.96, -4.65, -3.72, -2.97, -2.8, -2.8, -1.2, 0.0, 2.53, 3.16, 4.0, 3.82, 3.13, 1.4, -0.0, -1.13, -2.53, -1.9, -0.0, -0.0, -0.0, 6.98, 6.98, 6.98, 6.98, 7.61, 7.33, 7.61, 7.95, 7.95, 8.24, 8.24, 7.96, 8.24, 8.56, 8.56, 8.56, 8.85, 9.13, 9.42, 9.08, 9.08, 8.78, 8.78, 8.45, 8.73, 8.73, 8.38, 8.38, 8.08, 8.08, 8.08, 8.0, 8.0, 8.0, 7.9, 7.9, 8.15, 7.76, 7.48, 7.31, 6.8, 6.41, 6.03, 6.15, 6.95, 7.51, 5.09, 2.91, 1.9, 1.9, 2.4, 2.63, 3.07, 3.13, 3.58, 3.58, 4.02, 4.47, 4.47, 4.92, 4.92, 4.47, 4.47, 7.15, 7.01, 7.45, 7.45, 7.6, 6.65, 7.55, 8.05, 8.0, 9.03, 8.06, 9.29, 8.49, 4.02, -3.72, -4.98, -4.8, -3.9, -2.97, -2.4, -1.0, 1.2, 3.35, 4.0, 3.72, 3.39, 2.68, -0.0, -0.0, -0.0, -0.0, -0.0, 2.24, 2.24, 2.24, 6.98, 6.98, 6.98, 6.98, 6.98, 7.33, 7.33, 7.61, 7.61, 7.95, 7.96, 7.96, 8.24, 8.24, 8.56, 8.56, 8.85, 9.13, 9.42, 9.08, 8.5, 8.78, 8.78, 8.45, 8.45, 8.73, 8.38, 8.15, 8.08, 8.08, 8.08, 8.37, 8.0, 8.0, 8.0, 7.9, 7.9, 8.15, 7.76, 7.48, 7.48, 6.95, 6.56, 6.41, 6.95, 7.31, 7.4, 6.6, 5.24, 4.34, 3.98, 3.98, 4.02, 4.02, 4.02, 4.02, 4.02, 4.47, 4.47, 4.92, 4.92, 4.47, 4.47, 7.15, 7.01, 7.06, 7.06, 7.5, 6.45, 7.54, 8.05, 8.29, 8.3, 8.72, 8.72, 8.77, 8.05, 5.73, 3.58, 2.24, -3.58, -3.47, -2.97, -1.58, 0.0, 2.8, 3.39, 4.02, 3.58, 1.9, -0.0, -0.0, 1.27, -0.0, 1.79, 2.24, 2.24, 2.24, 6.34, 6.34, 6.98, 6.98, 6.98, 7.33, 7.33, 7.33, 7.61, 7.61, 7.6, 7.96, 8.24, 8.24, 8.24, 8.53, 8.53, 8.53, 9.08, 8.82, 8.5, 8.78, 8.45, 8.45, 8.45, 8.73, 8.38, 8.15, 8.15, 8.08, 8.08, 8.08, 8.37, 8.0, 8.0, 7.64, 7.9, 7.9, 8.15, 7.76, 7.87, 7.48, 6.95, 6.95, 6.41, 6.56, 7.09, 7.26, 6.94, 6.61, 6.23, 5.78, 5.36, 4.92, 4.92, 4.47, 4.47, 4.47, 4.47, 4.92, 4.92, 4.92, 4.92, 4.92, 7.45, 7.06, 7.06, 6.45, 6.94, 7.15, 8.38, 7.53, 8.17, 8.72, 8.72, 9.24, 9.39, 9.7, 9.49, 8.56, 5.94, 1.79, -2.97, -2.4, 0.0, 1.79, 2.24, 3.58, 3.58, 2.21, -0.0, 1.9, 1.9, 2.24, 2.24, 2.24, 2.24, 2.24, 6.34, 6.34, 6.61, 6.98, 6.98, 6.97, 7.33, 7.33, 7.61, 7.61, 7.61, 7.61, 7.95, 7.95, 7.95, 8.24, 8.53, 8.53, 8.82, 8.82, 8.5, 8.78, 8.45, 8.45, 8.45, 8.73, 8.15, 8.15, 8.15, 8.15, 8.08, 8.08, 8.08, 8.37, 8.0, 8.0, 7.9, 7.9, 7.9, 7.76, 7.61, 7.61, 7.48, 6.95, 6.56, 6.41, 6.8, 7.01, 7.21, 6.94, 6.61, 6.16, 6.23, 5.78, 5.34, 4.92, 4.92, 4.92, 4.92, 4.92, 4.92, 4.92, 4.47, 4.47, 4.88, 7.5, 7.6, 6.71, 7.15, 7.1, 7.37, 7.63, 8.06, 8.56, 8.77, 8.9, 9.39, 10.25, 10.14, 9.75, 9.75, 7.54, 1.9, -2.97, -2.24, 1.79, 1.79, 2.68, 3.13, 2.84, 3.58, 3.13, 2.68, 2.24, 2.24, 2.24, 2.24, 2.24, 6.34, 6.34, 6.61, 6.98, 6.71, 6.97, 6.97, 7.33, 7.33, 7.61, 7.61, 7.61, 7.61, 7.95, 8.24, 8.24, 8.53, 8.53, 8.82, 8.82, 8.5, 8.45, 8.45, 8.19, 8.19, 8.19, 8.15, 8.15, 8.15, 8.15, 8.44, 8.08, 8.08, 8.08, 8.0, 8.0, 7.9, 7.9, 7.9, 7.72, 7.61, 7.61, 7.23, 7.48, 6.95, 6.56, 6.67, 6.28, 6.6, 6.79, 6.51, 6.47, 6.16, 5.79, 5.34, 5.33, 5.33, 4.92, 4.92, 4.92, 4.92, 4.92, 4.47, 4.47, 4.47, 7.6, 7.6, 7.6, 7.94, 7.37, 7.63, 7.63, 7.85, 8.33, 8.9, 8.9, 9.39, 9.83, 9.8, 9.68, 10.14, 9.24, 5.36, -1.9, -2.97, -1.58, 0.0, 1.79, 2.24, 1.9, 3.13, 3.13, 2.8, 1.9, 2.24, 2.24, 2.24, 2.24, 6.34, 6.34, 6.34, 6.33, 6.71, 6.71, 6.97, 6.97, 7.33, 7.33, 7.61, 7.33, 7.33, 7.61, 7.93, 8.24, 8.53, 8.82, 8.5, 8.5, 8.5, 8.19, 8.19, 8.19, 8.19, 8.19, 7.86, 7.86, 8.15, 8.15, 8.15, 8.65, 8.08, 8.08, 8.37, 8.0, 8.0, 7.9, 7.9, 7.9, 7.35, 7.61, 7.61, 7.23, 6.95, 6.95, 6.8, 6.28, 6.51, 6.1, 6.3, 6.47, 6.04, 6.16, 5.78, 5.34, 5.33, 5.33, 5.33, 5.33, 5.33, 4.89, 4.47, 4.02, 4.02, 7.15, 7.15, 7.6, 7.6, 7.55, 8.45, 8.0, 8.45, 8.9, 8.9, 8.9, 9.39, 9.39, 9.39, 9.35, 9.35, 9.35, 6.71, 0.0, -3.9, -3.13, -2.24, 1.79, 1.34, 1.34, 2.68, 3.2, 2.53, 2.53, 2.21, 2.68, 2.68, 2.68, 6.34, 6.34, 6.34, 6.61, 6.71, 6.71, 6.97, 6.97, 6.97, 6.97, 7.33, 7.33, 7.61, 7.61, 7.93, 7.93, 7.93, 8.5, 8.5, 8.5, 8.5, 8.19, 8.19, 8.19, 8.19, 8.19, 8.19, 8.19, 8.19, 7.86, 8.15, 8.15, 8.44, 8.08, 8.08, 8.0, 8.0, 8.27, 7.9, 7.9, 7.35, 7.61, 7.61, 7.23, 7.34, 6.95, 6.56, 6.67, 6.28, 6.1, 6.3, 6.3, 6.04, 5.99, 5.7, 5.26, 5.26, 5.34, 5.34, 5.34, 5.33, 4.89, 4.44, 3.98, 3.98, 5.81, 6.26, 6.65, 7.15, 7.6, 8.33, 8.77, 8.77, 8.77, 8.9, 8.9, 8.9, 8.94, 8.94, 8.94, 8.94, 9.35, 7.6, 1.27, -4.0, -3.58, -2.24, -1.79, 1.79, 1.79, 1.34, 1.9, 2.21, 2.8, 2.21, -0.0, -0.0, -0.0, 6.34, 6.34, 6.34, 6.34, 6.61, 6.71, 6.71, 6.97, 6.97, 6.97, 6.97, 7.61, 7.61, 7.61, 7.93, 7.93, 8.22, 8.22, 8.22, 8.22, 7.9, 8.19, 8.19, 7.9, 7.9, 7.9, 7.9, 7.9, 8.19, 8.19, 7.86, 8.15, 8.15, 8.08, 8.08, 8.37, 8.0, 8.0, 8.27, 7.9, 7.9, 7.61, 7.61, 7.23, 7.07, 6.95, 6.95, 6.67, 6.28, 6.51, 6.1, 6.3, 5.88, 5.57, 5.7, 5.7, 5.7, 5.7, 5.7, 5.7, 5.26, 5.24, 4.77, 4.3, 3.87, 5.81, 5.81, 6.2, 6.71, 7.1, 7.63, 7.76, 8.3, 8.56, 8.77, 8.45, 8.45, 8.49, 8.49, 8.49, 8.49, 8.49, 8.05, 3.72, -4.24, -3.13, -2.24, 1.34, 1.34, 1.34, 1.79, 1.34, 1.79, 2.68, -0.0, -0.0, -0.0, -0.0, 6.34, 5.7, 6.34, 6.34, 6.34, 6.34, 6.71, 6.71, 6.71, 6.98, 6.98, 7.32, 7.61, 7.61, 7.93, 7.93, 8.22, 8.22, 8.22, 8.22, 7.9, 7.9, 7.9, 7.9, 7.9, 7.9, 7.9, 7.9, 7.6, 7.59, 7.59, 7.59, 7.81, 7.81, 8.08, 8.08, 8.37, 8.0, 8.27, 8.27, 7.9, 7.9, 7.61, 7.23, 7.23, 6.95, 6.95, 6.56, 6.28, 6.28, 6.1, 6.1, 6.3, 5.99, 5.57, 5.57, 5.57, 5.7, 5.7, 5.7, 5.7, 5.24, 4.77, 4.34, 4.3, 4.44, 5.81, 5.81, 6.26, 6.64, 6.88, 7.2, 7.15, 7.44, 8.56, 8.77, 8.45, 8.49, 8.49, 8.49, 8.49, 8.05, 8.05, 4.77, -4.47, -3.13, -2.24, 1.34, 1.79, 1.58, 1.79, 1.34, 2.24, -0.0, -0.0, -0.0, -0.0, -0.0, 5.7, 5.7, 6.08, 6.08, 6.34, 6.34, 6.61, 6.71, 6.98, 6.98, 6.98, 7.32, 7.61, 7.61, 7.93, 7.93, 8.22, 8.22, 7.9, 7.9, 7.9, 7.9, 7.9, 7.9, 7.6, 7.6, 7.6, 7.6, 7.6, 7.59, 7.59, 7.27, 7.55, 7.55, 7.55, 8.08, 8.08, 8.0, 8.0, 8.43, 8.27, 7.9, 7.9, 7.61, 7.23, 7.07, 6.95, 6.41, 6.41, 6.28, 6.28, 5.89, 6.1, 5.81, 5.81, 5.57, 5.57, 5.57, 5.57, 5.57, 5.57, 5.51, 5.09, 4.6, 4.6, 4.6, 6.02, 6.2, 6.26, 6.71, 6.64, 7.12, 6.55, 6.45, 7.82, 8.17, 8.06, 8.29, 8.44, 8.44, 8.0, 8.05, 8.0, -4.02, -4.92, -3.13, -2.68, 1.79, 1.79, 1.9, 1.9, 1.58, -0.0, -0.0, -0.0, -1.41, -1.41, -1.41, 5.7, 5.7, 5.7, 6.08, 6.08, 6.34, 6.34, 6.98, 6.98, 6.98, 6.98, 7.32, 7.32, 7.61, 7.93, 7.93, 8.22, 7.9, 7.9, 7.9, 7.9, 7.9, 7.9, 7.6, 7.6, 7.6, 7.6, 7.6, 7.6, 7.59, 7.59, 7.27, 7.27, 7.23, 7.23, 7.23, 7.51, 7.73, 8.0, 8.0, 8.43, 8.27, 7.9, 7.9, 7.61, 7.07, 6.7, 6.7, 6.41, 6.41, 6.03, 6.28, 6.0, 6.0, 5.81, 5.81, 5.81, 5.81, 5.81, 5.81, 5.81, 5.31, 5.09, 4.6, 4.6, 4.8, 5.09, 5.33, 6.71, 7.15, 7.54, 7.85, 7.37, 6.57, 6.57, 6.79, 7.6, 7.63, 7.85, 7.85, 8.0, 8.0, 3.82, -4.47, -4.92, -3.58, -2.68, -2.24, 1.34, 1.79, 1.9, 1.2, 1.6, -0.0, -1.27, -1.27, -1.27, -1.27, 5.72, 5.72, 5.98, 6.35, 6.35, 6.08, 6.34, 6.34, 6.7, 6.98, 6.98, 6.98, 7.32, 7.32, 7.61, 8.22, 8.22, 7.9, 7.9, 7.9, 8.19, 8.19, 7.9, 7.6, 7.6, 7.6, 7.6, 7.6, 7.6, 7.59, 7.59, 7.27, 7.27, 6.95, 6.95, 6.95, 7.51, 7.51, 7.73, 8.08, 8.37, 8.0, 8.27, 7.9, 7.72, 7.35, 7.07, 6.7, 6.51, 6.15, 6.41, 6.03, 5.75, 6.0, 6.0, 5.6, 5.81, 5.81, 5.81, 5.81, 5.81, 5.4, 4.9, 4.8, 4.8, 4.8, 5.09, 5.24, 7.1, 7.1, 8.0, 8.0, 8.05, 8.05, 7.6, 7.6, 7.2, 7.63, 8.29, 7.85, 8.0, 7.54, 3.72, -4.4, -5.81, -4.47, -3.58, -3.13, -1.79, 1.34, -0.0, 1.58, 1.4, -0.0, -1.6, -1.4, -1.4, -1.4, 5.72, 5.72, 5.72, 6.35, 6.35, 6.35, 6.34, 6.34, 6.7, 6.7, 6.98, 6.98, 7.32, 7.32, 7.6, 7.6, 7.9, 7.9, 7.9, 7.9, 8.19, 8.19, 7.6, 7.6, 7.6, 7.6, 7.6, 7.6, 7.3, 7.3, 7.59, 7.27, 6.97, 6.95, 6.95, 6.95, 7.25, 7.51, 7.51, 7.51, 7.73, 8.37, 8.0, 8.0, 7.9, 7.72, 7.35, 6.79, 6.79, 6.51, 6.15, 6.41, 5.86, 5.75, 5.75, 6.0, 6.0, 6.0, 6.1, 6.0, 5.6, 5.81, 5.31, 4.9, 4.9, 4.9, 4.8, 5.02, 5.09, 7.37, 7.42, 8.0, 8.05, 8.05, 8.05, 8.05, 8.45, 8.33, 8.77, 8.33, 8.0, 7.6, 5.26, -3.2, -6.26, -5.36, -3.58, -3.13, -2.68, -2.24, 1.79, -0.0, -0.0, -0.0, -1.6, -1.6, -1.6, -1.6, 5.72, 5.72, 5.72, 5.72, 6.35, 6.35, 6.35, 6.63, 6.7, 6.7, 6.7, 6.98, 7.32, 7.6, 7.6, 7.6, 7.9, 7.9, 7.9, 8.19, 8.19, 7.59, 7.6, 7.6, 7.6, 7.6, 7.6, 7.6, 7.3, 7.3, 7.27, 6.97, 6.97, 6.95, 6.95, 6.95, 6.95, 7.51, 7.51, 7.51, 7.51, 7.73, 7.73, 8.0, 8.0, 7.64, 7.44, 7.35, 6.79, 6.79, 6.51, 6.15, 6.03, 6.03, 6.28, 6.28, 5.89, 5.89, 6.1, 6.1, 6.0, 5.6, 5.08, 5.31, 4.9, 4.9, 4.8, 4.8, 4.8, 6.7, 7.37, 7.37, 7.55, 7.6, 7.6, 8.0, 7.85, 8.33, 8.77, 8.33, 8.05, 7.6, 7.6, 3.58, -4.92, -6.26, -4.47, -3.58, -3.13, -2.68, -2.24, -0.0, -0.0, -1.4, -1.6, -2.53, -2.53, -2.53, 5.72, 5.72, 5.72, 5.72, 6.35, 6.35, 6.35, 6.35, 6.98, 6.7, 6.7, 6.7, 7.27, 7.6, 7.6, 7.6, 7.6, 7.6, 7.9, 7.9, 7.59, 7.59, 7.3, 7.6, 7.6, 7.6, 7.6, 7.6, 7.3, 7.59, 7.27, 6.97, 6.97, 6.95, 6.95, 6.95, 6.95, 7.23, 7.51, 7.51, 7.51, 7.51, 7.51, 7.51, 7.73, 8.0, 7.8, 7.44, 7.09, 7.15, 6.79, 6.15, 6.15, 6.41, 6.03, 6.03, 6.28, 6.28, 6.28, 6.28, 6.0, 5.6, 5.08, 5.08, 5.08, 5.08, 4.8, 4.8, 4.8, 6.57, 6.94, 6.94, 7.1, 7.15, 7.1, 7.42, 7.85, 7.85, 8.06, 8.0, 8.05, 8.05, 8.49, 6.2, -2.21, -6.26, -5.36, -4.02, -4.02, -3.13, -2.4, -2.4, -1.4, -1.6, -2.53, -2.53, -2.53, -2.53, 5.72, 5.72, 5.72, 5.72, 6.08, 6.35, 6.35, 6.98, 6.98, 6.7, 6.7, 6.98, 6.98, 7.3, 7.3, 7.3, 7.3, 7.3, 7.59, 7.59, 7.59, 7.59, 7.3, 7.3, 7.6, 7.6, 7.6, 7.3, 7.3, 7.59, 6.97, 6.97, 6.97, 6.95, 6.95, 6.95, 6.95, 7.23, 7.23, 7.51, 7.51, 7.51, 7.51, 7.51, 7.51, 7.51, 7.51, 7.44, 7.44, 6.87, 6.79, 6.23, 6.15, 6.15, 6.41, 6.41, 6.41, 6.41, 6.28, 6.28, 5.89, 5.6, 5.47, 5.08, 5.08, 5.08, 5.08, 4.55, 4.93, 5.4, 6.14, 7.54, 7.15, 6.71, 7.15, 7.6, 7.55, 8.0, 8.05, 8.0, 8.05, 8.49, 8.49, 8.05, 3.13, -5.36, -5.81, -4.47, -4.47, -4.02, -3.58, -3.39, -2.6, -2.84, -2.84, -2.84, -2.84, -2.84, 5.72, 5.72, 5.72, 5.72, 6.08, 6.35, 6.35, 6.98, 6.98, 6.98, 6.98, 6.98, 6.98, 6.98, 7.3, 7.3, 7.3, 7.59, 7.59, 7.59, 7.59, 7.59, 7.59, 7.3, 7.6, 7.6, 7.3, 7.3, 7.3, 7.59, 6.97, 6.97, 6.97, 6.67, 6.95, 6.95, 7.23, 7.23, 7.23, 7.23, 7.51, 7.51, 7.51, 7.51, 7.51, 7.51, 7.51, 7.51, 7.17, 7.21, 6.87, 6.57, 6.23, 6.51, 6.51, 6.15, 6.41, 6.41, 6.41, 6.28, 6.28, 6.0, 5.47, 5.08, 5.08, 5.08, 5.08, 4.55, 4.55, 4.9, 5.57, 7.1, 6.71, 7.6, 6.71, 7.15, 7.6, 8.05, 8.05, 8.05, 8.05, 8.49, 8.49, 8.05, 4.47, -4.47, -6.17, -5.73, -4.85, -4.85, -4.47, -4.47, -4.02, -3.9, -3.6, -3.35, -3.35, -3.35, 5.46, 5.46, 5.72, 6.08, 6.08, 6.35, 6.35, 6.69, 6.69, 6.69, 6.69, 6.98, 6.98, 6.98, 7.28, 7.59, 7.59, 7.59, 7.59, 7.59, 7.59, 7.59, 7.59, 7.3, 7.3, 7.3, 7.3, 7.3, 7.3, 7.59, 6.97, 6.97, 6.97, 6.97, 6.97, 7.55, 7.55, 7.23, 7.23, 6.95, 6.95, 7.25, 7.51, 7.51, 7.51, 7.51, 7.51, 7.51, 7.17, 6.92, 6.87, 6.28, 6.57, 6.23, 6.23, 6.51, 6.51, 6.41, 6.41, 6.28, 6.28, 5.75, 5.37, 5.47, 5.21, 4.84, 5.08, 4.55, 4.55, 4.8, 4.8, 5.09, 4.89, 7.15, 6.26, 6.71, 7.1, 7.6, 7.6, 7.6, 7.55, 8.0, 8.0, 8.05, 5.81, -3.2, -6.45, -5.94, -5.51, -5.73, -5.81, -5.81, -4.92, -4.85, -4.57, -4.4, -4.4, -4.4, 5.46, 5.46, 5.72, 6.08, 6.08, 6.35, 6.35, 6.69, 6.69, 6.69, 6.69, 6.98, 6.98, 6.98, 7.28, 7.59, 7.59, 7.59, 7.59, 7.59, 7.59, 7.59, 7.59, 7.3, 7.3, 7.3, 7.3, 7.3, 7.3, 7.59, 6.97, 6.97, 6.97, 6.97, 6.97, 7.55, 7.55, 7.23, 7.23, 6.95, 6.95, 7.25, 7.51, 7.51, 7.51, 7.51, 7.51, 7.51, 7.17, 6.92, 6.87, 6.28, 6.57, 6.23, 6.23, 6.51, 6.51, 6.41, 6.41, 6.28, 6.28, 5.75, 5.37, 5.47, 5.21, 4.84, 5.08, 4.55, 4.55, 4.8, 4.8, 5.09, 4.89, 7.15, 6.26, 6.71, 7.6, 7.6, 7.6, 7.6, 7.55, 7.55, 7.55, 8.05, 7.15, 3.2, -4.4, -6.45, -6.45, -6.64, -6.26, -6.26, -5.73, -5.94, -5.6, -5.37, -5.37, -5.37]}, {"header": {"dx": 0.06612293990616946, "dy": 0.0552356325346848, "nx": 98, "ny": 59, "la1": 35.046912555036876, "la2": 31.78801023549047, "lo1": -121.43107172385933, "lo2": -114.95102361305473, "refTime": "2026040722", "parameterCategory": 1, "parameterNumber": 3}, "data": [-9.77, -9.8, -9.8, -9.5, -9.5, -9.21, -8.59, -8.59, -8.22, -7.57, -6.92, -5.67, -5.06, -3.39, -1.76, -0.85, -0.93, -0.94, -4.74, -7.15, -7.45, -7.45, -6.0, -5.6, -5.6, -4.89, -4.89, -4.89, -4.89, -5.37, -5.4, -4.98, -5.26, -4.92, -5.26, -4.98, -5.21, -5.58, -5.15, -4.74, -4.16, -3.99, -5.46, -6.24, -6.4, -6.7, -7.63, -7.9, -7.51, -5.86, -4.8, -3.25, -1.76, -0.85, 0.0, 0.94, 1.01, 1.84, 1.99, 2.2, 2.2, 2.48, 1.6, 1.6, 1.27, 1.08, 1.08, 1.08, 1.41, 1.6, 1.9, 2.24, 2.24, 2.68, 2.24, 0.0, -2.68, -2.24, -2.68, -2.68, -3.13, -2.8, -2.53, -2.84, -2.53, -0.87, 0.0, 0.0, 0.0, 2.16, 4.98, 6.17, 6.17, 5.73, 5.7, 5.7, 5.26, 5.26, -9.77, -9.8, -9.5, -9.5, -9.5, -9.21, -8.86, -8.59, -8.22, -7.57, -6.96, -7.12, -5.86, -4.5, -3.39, -2.39, -1.67, -1.22, -2.69, -5.51, -7.45, -7.45, -7.06, -6.8, -5.6, -5.21, -5.21, -5.58, -5.58, -6.0, -5.6, -5.94, -5.73, -5.81, -5.73, -5.6, -6.21, -6.21, -6.21, -6.18, -5.69, -6.95, -7.27, -8.12, -8.76, -9.06, -8.01, -7.36, -6.98, -6.15, -4.92, -3.36, -2.59, -1.47, 0.0, 0.0, 0.89, 0.95, 0.96, 1.05, 0.96, 1.08, 0.0, 0.0, 0.0, 0.0, 0.0, 0.0, 1.08, 1.41, 1.6, 0.0, 0.0, 0.0, 0.0, 0.0, -2.21, -2.24, -2.68, -2.68, -3.13, -2.8, -2.53, -2.84, -2.53, -0.87, 0.0, 0.0, 0.0, 2.16, 4.98, 6.17, 6.17, 5.73, 5.7, 5.7, 5.26, 5.26, -9.77, -9.8, -9.5, -9.5, -9.5, -9.5, -9.21, -8.86, -8.22, -7.59, -6.97, -6.08, -6.45, -5.0, -3.78, -3.36, -2.47, -2.59, -2.83, -4.37, -6.71, -7.45, -7.45, -7.06, -6.9, -5.58, -5.58, -5.58, -6.16, -6.57, -7.12, -6.94, -6.64, -7.15, -6.17, -7.06, -6.57, -6.8, -7.76, -7.82, -8.06, -8.93, -10.58, -11.6, -10.92, -9.56, -7.48, -6.53, -5.76, -5.21, -5.21, -4.2, -2.57, -1.75, -0.77, 0.0, 0.0, 0.0, 0.95, 0.96, 1.05, 0.96, 0.0, 0.0, 0.0, -1.19, 0.0, 0.0, 0.0, 0.0, 0.0, 0.0, -1.9, 0.0, 0.0, 0.0, 0.0, -3.13, -2.68, -2.68, -2.68, -2.8, -2.53, -2.53, -2.53, -1.98, -1.66, -0.96, 0.0, 3.22, 6.17, 6.26, 5.73, 5.73, 5.4, 4.98, 4.8, 4.92, -9.77, -9.8, -9.5, -9.5, -9.5, -9.5, -9.21, -8.86, -8.59, -7.96, -7.33, -6.69, -6.84, -5.18, -4.92, -4.25, -4.25, -4.44, -4.13, -4.4, -5.49, -7.6, -7.45, -6.57, -6.21, -6.9, -5.58, -6.16, -6.45, -7.37, -7.85, -8.33, -8.29, -7.94, -7.6, -7.89, -8.06, -9.04, -9.36, -10.55, -11.28, -12.26, -12.26, -11.28, -9.96, -8.64, -6.04, -4.5, -4.26, -4.5, -3.91, -3.63, -2.69, -1.84, -0.85, -0.94, 0.0, 0.0, 0.0, 1.03, 0.96, 1.05, 0.0, 0.0, 0.0, -0.96, -1.05, -0.96, -0.81, -1.83, -1.99, -2.48, -3.2, -2.24, -1.58, 0.0, 0.0, -2.24, -3.2, -1.9, -1.79, -1.4, -2.53, -2.53, -2.84, -2.48, -1.99, -1.05, 2.2, 5.4, 6.26, 5.81, 5.73, 5.73, 4.98, 4.11, 4.29, 4.47, -9.77, -9.77, -9.8, -9.5, -9.21, -9.5, -9.21, -9.21, -8.59, -8.23, -7.33, -6.97, -6.7, -5.29, -4.92, -5.14, -5.41, -5.0, -5.63, -5.0, -6.3, -7.94, -7.89, -7.89, -6.8, -7.28, -7.89, -7.47, -7.94, -7.6, -8.49, -8.9, -9.35, -8.45, -8.94, -9.29, -9.46, -10.46, -11.92, -13.19, -13.25, -11.64, -9.96, -8.6, -8.31, -6.83, -5.21, -3.63, -2.69, -2.69, -2.69, -2.69, -2.69, -1.75, -0.89, -0.89, 0.0, 0.0, 0.0, 0.0, 0.0, 0.96, 0.0, 0.0, 0.0, 0.0, -1.05, -1.14, -0.96, -1.84, -2.99, -4.29, -4.38, -4.47, -3.58, -2.4, 0.0, -2.24, -3.2, -1.9, -2.24, -1.6, -1.6, -1.6, -1.27, 0.0, 0.0, 2.2, 4.98, 6.26, 6.26, 6.17, 6.17, 5.94, 4.89, 3.91, 2.99, 4.34, -9.77, -9.77, -9.8, -9.8, -9.21, -9.5, -9.5, -9.21, -8.59, -8.59, -7.61, -6.95, -6.42, -5.29, -4.8, -5.14, -5.14, -6.24, -6.45, -7.24, -6.98, -7.76, -8.85, -8.82, -8.06, -8.06, -8.06, -8.38, -8.38, -9.39, -8.49, -8.9, -8.8, -8.45, -7.6, -8.05, -8.77, -9.36, -11.92, -13.91, -12.98, -11.33, -8.38, -7.59, -6.7, -5.9, -5.06, -3.49, -1.68, -0.81, -0.89, -1.67, -1.84, -1.75, -0.89, -0.84, 0.0, 0.0, 0.0, 0.0, 0.0, 0.96, 0.96, 0.96, 0.0, 0.0, 0.0, -0.96, -0.96, -1.03, -2.16, -4.4, -5.36, -5.36, -4.47, -4.02, -3.13, -2.68, -2.8, -3.2, -3.13, -1.4, 0.0, 0.0, 1.6, 3.16, 4.29, 5.2, 6.17, 6.26, 6.26, 6.17, 5.94, 4.89, 4.19, 3.0, 2.99, 4.4, -9.77, -9.77, -9.8, -9.8, -9.5, -9.5, -9.5, -9.21, -8.87, -8.87, -7.9, -6.92, -6.83, -4.92, -4.72, -4.44, -5.0, -6.08, -6.7, -7.63, -7.63, -7.27, -8.0, -8.73, -9.29, -8.82, -8.82, -8.85, -9.29, -8.44, -9.39, -8.77, -7.82, -7.2, -6.7, -7.6, -6.64, -6.8, -10.41, -11.84, -12.75, -11.35, -10.0, -9.09, -7.59, -6.04, -5.06, -4.07, -3.36, -2.49, -1.16, -1.84, -1.84, -0.89, -0.94, -0.89, 0.0, 0.0, 0.0, 0.0, 0.96, 1.05, 0.96, 0.96, 0.96, 0.96, 0.0, 0.0, 0.0, 0.0, 0.0, 0.0, -2.68, -3.2, -3.2, -3.2, -3.2, -3.58, -3.2, -1.6, -2.68, 0.0, 3.2, 4.24, 4.82, 4.66, 5.94, 5.94, 6.17, 6.17, 5.31, 5.09, 5.37, 3.91, 3.0, 1.84, 3.22, 4.29, -9.77, -9.77, -9.8, -9.8, -9.8, -9.5, -9.5, -9.5, -9.21, -8.58, -8.19, -7.09, -7.27, -6.41, -5.86, -5.41, -5.51, -5.6, -6.44, -7.38, -7.38, -5.4, -5.29, -7.12, -8.05, -7.94, -7.45, -8.38, -8.85, -9.74, -9.83, -10.2, -10.46, -8.93, -6.4, -4.38, 0.0, 3.13, -4.92, -10.28, -11.18, -10.66, -10.41, -9.04, -7.44, -7.33, -5.1, -5.21, -4.56, -3.87, -2.69, -1.84, -0.94, -0.89, -0.89, -0.95, -0.95, 0.0, 0.0, 0.0, 0.0, 0.0, 0.0, 1.05, 1.05, 0.96, 1.03, 0.96, 0.96, 0.96, 1.99, 3.72, 4.02, 3.2, 2.21, -0.0, -3.13, -3.82, -2.53, -1.27, -0.0, 1.9, 3.13, 4.02, 4.47, 4.38, 4.57, 4.98, 5.7, 5.73, 4.85, 4.22, 4.11, 2.8, 2.64, 3.0, 3.91, 5.37, -9.77, -9.77, -10.09, -9.8, -9.8, -9.82, -9.5, -9.5, -9.21, -8.87, -8.45, -8.55, -10.79, -10.12, -8.97, -8.53, -7.93, -7.9, -7.38, -6.94, -6.94, -6.3, -5.25, -5.35, -3.72, 0.0, 0.0, -5.36, -8.49, -9.83, -10.28, -10.2, -8.4, -4.56, -1.99, 1.6, 6.26, 7.45, 5.51, -3.79, -8.49, -9.29, -9.03, -8.06, -6.52, -5.15, -4.83, -2.99, -2.67, -1.75, -1.26, -0.89, -0.85, -0.85, -0.94, -0.89, -1.84, -1.03, -0.96, 0.0, 0.0, 0.0, 0.0, 0.0, 0.0, 0.0, 0.0, 0.96, 1.14, 2.16, 1.99, 2.84, 4.47, 4.02, 3.13, 3.13, 0.0, -2.68, -1.27, -0.98, -0.0, -0.0, 1.9, 2.4, 3.13, 3.13, 3.39, 4.0, 3.6, 4.15, 4.0, 3.58, 2.53, 2.8, 3.0, 3.91, 4.89, 6.0, -9.77, -9.77, -10.09, -9.8, -9.8, -10.12, -9.82, -9.5, -9.21, -9.17, -9.37, -9.86, -9.3, -9.21, -11.16, -10.79, -11.39, -11.34, -10.69, -9.76, -10.01, -9.42, -6.94, -2.49, 1.49, 4.29, 3.72, 1.84, -4.11, -7.01, -7.15, -4.92, 0.0, 4.11, 4.74, 4.74, 5.81, 5.81, 6.71, 4.92, 0.0, -3.35, -4.54, -3.91, -2.8, -1.98, 0.0, 0.0, 0.89, 0.89, 0.0, 0.0, 0.0, -0.89, -1.75, -1.84, -2.82, -1.98, -1.98, -1.84, -1.84, -1.05, 0.0, 0.0, 0.0, 0.0, 0.0, 0.0, 0.0, 0.0, 1.19, 1.98, 2.4, 2.24, 2.24, 1.58, 0.0, 0.0, -0.0, -0.0, -1.13, -0.99, -0.0, -0.0, 0.0, 0.0, 1.58, 1.9, 2.4, 2.21, 1.98, 1.8, 3.22, 3.91, 4.19, 4.74, 5.58, 5.58, -10.06, -9.77, -9.77, -9.8, -9.8, -10.12, -9.82, -9.5, -9.21, -9.48, -9.42, -10.59, -10.3, -9.46, -10.22, -9.96, -11.03, -7.52, -6.98, -6.44, -10.04, -7.4, -2.16, 2.48, 5.6, 4.46, 3.48, 3.48, 2.2, 0.0, 3.58, 4.92, 6.26, 5.4, 4.4, 4.84, 5.58, 7.06, 5.58, 5.49, 4.74, 2.6, 0.0, 0.0, 0.0, 0.89, 1.84, 1.75, 1.84, 0.85, 0.0, 0.0, -0.85, -2.69, -3.45, -3.6, -4.42, -3.97, -3.72, -2.99, 0.0, 2.2, 3.22, 2.99, 0.0, -0.95, -1.84, -1.98, -0.96, -1.05, 0.0, 0.0, 0.0, -1.58, -1.58, -1.58, 0.0, 2.68, 2.8, 2.21, -0.0, -1.2, -2.98, -2.4, -2.0, -1.79, -1.79, 0.0, 0.0, 0.0, 1.4, 2.23, 3.48, 3.79, 3.91, 4.43, 5.24, 5.58, -10.06, -9.77, -9.77, -10.09, -9.8, -9.8, -10.12, -9.82, -9.5, -9.19, -10.06, -10.65, -10.69, -9.82, -7.96, -6.94, -5.45, -4.83, -5.1, -4.22, -3.21, -0.98, 1.27, 5.36, 5.09, 4.0, 3.6, 0.8, 3.58, 4.92, 5.09, 5.4, 5.94, 4.98, 4.4, 4.6, 4.43, 5.37, 5.37, 4.42, 3.4, 2.82, 1.84, 0.0, 0.0, 1.03, 1.49, 1.49, 0.0, 0.0, -0.94, -1.75, -1.95, -2.67, -4.68, -5.24, -5.69, -5.49, -4.98, 0.0, 5.26, 6.88, 6.6, 5.37, 2.82, 0.0, -2.82, -3.97, -3.72, -3.91, -2.95, -2.84, -2.98, -3.82, -4.02, -3.58, -1.9, -0.0, 2.4, 2.68, 2.68, 0.0, -2.21, -3.35, -3.47, -2.97, -2.68, -1.79, 0.0, 0.0, 0.0, 1.2, 1.74, 2.0, 2.76, 3.63, 4.43, 4.74, -10.06, -9.77, -9.77, -10.09, -9.8, -9.8, -10.12, -10.12, -9.8, -9.8, -9.77, -10.36, -10.69, -10.43, -9.21, -7.48, -5.7, -3.96, -3.39, -2.25, -1.63, 0.0, 0.0, 0.89, 1.49, 1.58, 0.99, 1.26, 1.7, 1.34, 3.9, 4.6, 4.98, 4.98, 4.98, 5.21, 4.81, 4.58, 3.55, 2.51, 1.73, 1.84, 0.89, 0.0, 0.0, 1.7, 3.47, 1.63, 0.0, 0.0, -0.78, -1.63, -0.89, 0.0, 0.0, 0.0, -3.72, -6.94, -4.34, 4.29, 8.05, 8.29, 7.2, 6.18, 5.37, 1.96, -0.83, -4.42, -5.84, -5.58, -5.37, -4.98, -5.26, -4.92, -3.82, -1.6, -0.0, -0.0, -0.0, 0.0, 0.0, 0.0, 0.0, 2.24, -3.2, -3.82, -3.35, -2.21, -2.24, -1.79, -1.34, 0.0, 0.0, 1.13, 2.0, 3.22, 3.63, 3.91, -10.06, -9.77, -9.77, -10.09, -9.8, -9.8, -10.12, -10.12, -10.12, -9.8, -9.8, -9.8, -10.4, -10.43, -10.13, -8.79, -7.66, -5.85, -4.03, -2.87, -2.24, -1.66, -1.06, -0.51, 0.4, 0.89, 0.89, 0.89, 0.89, 1.34, 2.12, 4.0, 4.43, 4.54, 4.43, 4.43, 4.01, 3.55, 2.51, 0.89, 0.89, 0.0, 0.0, 0.0, 2.2, 5.51, 4.6, 3.72, 1.63, 1.73, 0.0, 0.0, 4.11, 6.07, 6.0, 4.19, 1.63, -2.4, -0.0, 5.58, 8.45, 8.85, 8.06, 7.47, 6.21, 4.74, 0.96, -2.6, -6.08, -5.94, -6.17, -6.26, -5.81, -2.84, -0.0, 2.84, 3.2, -0.0, -1.4, -3.13, -2.68, 0.0, 1.79, 2.24, 0.0, 0.0, -2.84, -2.48, -2.8, -2.68, -2.4, -2.24, 0.0, 0.0, 0.99, 2.0, 1.99, 1.99, -10.06, -10.06, -9.77, -10.09, -9.8, -9.8, -9.8, -10.12, -10.12, -9.8, -9.8, -9.8, -10.12, -10.43, -10.13, -9.75, -8.37, -7.2, -6.02, -5.18, -4.01, -3.53, -2.3, -1.59, 0.0, 0.51, 0.61, 0.61, 0.61, 1.16, 1.16, 1.61, 2.8, 4.29, 4.29, 5.37, 5.69, 3.55, 1.4, 0.0, 0.0, 0.0, 0.0, 1.41, 4.84, 6.58, 6.58, 5.21, 4.43, 3.47, 3.0, 3.72, 6.0, 6.51, 5.6, 4.43, 3.0, 0.96, 3.35, 7.6, 8.05, 7.89, 7.06, 6.8, 6.08, 6.08, 5.06, 1.63, 0.0, -6.51, -6.64, -5.94, -2.48, 3.72, 5.73, 6.26, 5.73, 3.82, 0.0, -3.13, -3.13, -2.68, -0.0, 0.0, 0.0, 2.53, 0.0, -2.21, -2.4, -3.13, -2.53, -1.98, -1.0, 0.0, 0.0, 0.0, 1.08, 1.08, -10.06, -10.06, -9.77, -10.09, -10.09, -9.8, -9.8, -10.12, -10.12, -10.12, -10.12, -10.12, -9.82, -10.13, -10.13, -9.84, -8.81, -8.14, -7.0, -6.02, -5.34, -4.03, -2.9, -1.71, -0.57, 0.0, 0.55, 0.55, 0.56, 0.53, 0.53, 0.59, 1.16, 2.82, 4.29, 4.29, 4.42, 2.67, 1.32, 0.0, 0.0, 0.0, 1.63, 4.74, 6.0, 7.01, 7.01, 6.0, 4.74, 4.43, 4.43, 4.43, 5.36, 5.21, 4.11, 1.84, 1.63, 1.63, 4.56, 7.28, 6.8, 6.13, 5.36, 4.74, 4.74, 5.06, 3.91, 4.83, 1.49, -5.58, -6.45, -0.96, 4.29, 6.64, 7.15, 6.94, 6.57, 4.89, 2.23, -3.13, -3.82, -2.84, -2.53, -2.21, -2.68, 0.0, 1.27, 0.0, 0.0, 0.0, -1.4, -1.98, -1.79, 0.0, 0.0, 0.0, 0.0, 0.0, -10.06, -10.06, -9.77, -10.09, -10.09, -9.8, -9.8, -10.12, -10.12, -10.12, -10.12, -9.82, -9.82, -9.84, -10.13, -9.49, -8.83, -8.16, -7.48, -6.33, -5.18, -4.03, -2.34, -0.56, 0.0, 0.0, 0.0, 0.0, 0.0, 0.0, 0.0, 0.0, 0.0, 1.25, 2.6, 4.01, 3.72, 3.2, 1.52, 0.0, 1.7, 4.29, 5.72, 5.21, 7.06, 7.06, 7.06, 5.72, 5.72, 4.02, 4.02, 4.74, 4.74, 4.74, 2.8, 1.32, 1.4, 2.82, 5.03, 6.63, 5.69, 4.29, 4.02, 2.8, 3.0, 1.84, 3.0, 3.2, 1.49, -3.47, -4.4, 4.22, 7.1, 7.1, 7.37, 6.8, 6.18, 5.06, 3.63, 0.0, -4.24, -3.48, -2.73, -1.98, -2.53, -3.13, 0.0, 1.4, 1.4, 0.0, -1.4, -2.53, -2.0, 0.0, 0.0, 0.0, 0.0, 0.0, -10.06, -10.06, -9.77, -9.77, -10.09, -10.09, -9.8, -10.12, -10.12, -10.12, -9.82, -9.82, -10.13, -9.84, -9.5, -9.22, -8.83, -8.16, -7.06, -5.25, -4.03, -2.97, -2.26, 0.0, 0.56, 0.0, -0.57, -1.16, -1.11, -1.12, -0.54, -0.56, -0.53, 0.0, 1.08, 2.16, 2.2, 1.7, 1.84, 3.22, 5.6, 6.4, 6.0, 6.4, 6.52, 6.9, 6.9, 5.37, 4.56, 3.68, 4.29, 4.29, 4.29, 4.02, 3.0, 1.4, 1.49, 2.82, 3.91, 3.91, 3.91, 2.82, 2.66, 1.63, 0.0, 0.0, 0.0, 0.0, 0.0, 0.0, 3.72, 7.12, 7.2, 6.82, 6.55, 6.11, 5.37, 4.58, 4.74, 3.48, 0.0, -1.13, -0.0, -0.99, -1.6, -0.0, 1.4, 2.68, 3.2, 3.35, 0.0, -1.9, -0.0, 2.24, 2.68, 2.68, 1.79, 1.79, -10.06, -10.06, -9.77, -9.77, -10.09, -10.09, -9.8, -9.8, -10.12, -10.12, -9.82, -9.82, -10.13, -9.84, -9.84, -10.71, -8.86, -8.58, -6.9, -4.65, -3.5, -3.47, -3.44, -3.23, -2.44, -2.37, -2.16, -2.69, -1.84, 0.0, 0.0, -0.59, -0.57, -0.57, 0.0, 0.0, 0.0, 0.0, 0.96, 3.47, 3.79, 4.65, 5.21, 5.36, 6.08, 5.69, 5.03, 4.14, 3.91, 2.82, 2.66, 4.29, 4.29, 4.29, 3.2, 2.66, 2.66, 2.82, 3.91, 2.82, 2.82, 1.4, 1.4, 0.0, 0.0, 0.0, -1.03, 0.0, 0.0, 2.83, 5.46, 5.9, 5.76, 5.06, 4.34, 3.6, 3.77, 4.58, 5.15, 5.24, 4.24, 3.82, 2.48, 1.98, 1.27, 2.48, 2.2, 2.68, 3.58, 3.39, 2.48, 2.21, 2.8, 3.39, 4.02, 4.02, 3.58, 3.58, -10.06, -10.06, -9.77, -9.77, -9.77, -10.09, -10.09, -9.8, -10.12, -10.12, -9.82, -9.82, -9.84, -9.84, -9.84, -9.5, -8.86, -8.58, -8.95, -6.65, -6.35, -5.92, -6.46, -7.93, -7.79, -6.0, -4.58, -1.26, 0.0, 1.2, 0.89, 0.0, 0.0, -0.53, 0.0, 0.0, 0.0, 0.0, 0.0, 1.11, 1.58, 2.23, 2.23, 2.86, 2.86, 3.91, 3.91, 2.82, 2.82, 2.82, 4.29, 4.29, 4.29, 4.29, 2.8, 3.0, 2.82, 3.11, 2.82, 1.32, 0.0, 0.0, 0.0, 0.0, 0.0, -0.96, -0.96, 0.0, 0.0, 1.84, 2.59, 3.29, 2.53, 1.64, 0.0, 0.0, 1.84, 3.91, 5.58, 5.58, 4.89, 5.4, 4.92, 4.34, 3.72, 2.84, 2.84, 2.68, 2.53, 3.13, 3.35, 4.34, 4.47, 4.92, 4.47, 4.77, 3.72, 3.72, -10.06, -10.06, -10.06, -9.77, -9.77, -10.09, -10.09, -9.8, -10.12, -10.12, -9.82, -10.13, -9.84, -9.84, -10.13, -9.84, -8.86, -8.24, -8.22, -10.01, -9.39, -7.33, -7.6, -7.96, -7.61, -5.09, -1.76, -0.6, 0.45, 1.7, 1.34, 0.63, 0.0, 0.0, 0.0, 0.0, 0.0, 0.0, 0.0, 0.0, 0.57, 1.11, 1.8, 1.8, 2.48, 3.91, 2.82, 2.82, 1.49, 2.66, 4.29, 5.72, 5.06, 4.29, 4.29, 3.47, 3.55, 2.35, 1.32, 0.0, 0.0, 0.0, 0.0, 0.0, -0.96, -0.96, -0.96, 0.0, 0.0, 0.89, 1.68, 1.63, 0.0, -1.7, -2.47, -1.73, 2.53, 4.98, 5.6, 5.6, 5.58, 4.89, 5.4, 4.38, 4.92, 4.47, 4.47, 4.38, 3.93, 2.53, 4.02, 4.47, 5.36, 4.47, 4.38, 4.0, 3.16, 3.16, -10.06, -10.06, -10.06, -9.77, -9.77, -9.77, -10.09, -9.8, -9.8, -10.12, -9.82, -10.13, -9.84, -9.84, -9.84, -9.84, -9.21, -8.58, -9.17, -9.5, -7.96, -6.33, -5.72, -6.06, -6.08, -4.66, -2.23, -0.53, 0.0, 0.0, 0.95, 0.6, 0.0, 0.0, 0.0, 0.0, 0.0, 0.0, 0.0, 0.0, 0.57, 0.57, 1.27, 1.8, 2.48, 2.86, 2.54, 1.4, 3.0, 4.74, 5.72, 5.72, 5.06, 4.29, 4.02, 4.29, 3.72, 2.67, 1.32, 0.0, -1.73, -1.73, -1.73, -1.84, -1.98, -1.84, -0.96, 0.0, 0.0, 1.58, 2.83, 2.82, 0.0, -4.11, -3.82, 0.0, 2.24, 3.58, 4.38, 5.09, 5.6, 5.21, 5.94, 5.51, 5.73, 5.73, 5.73, 6.26, 5.36, 2.95, 3.16, 3.9, 4.02, 4.02, 3.9, 2.84, 3.16, 3.16, -10.01, -10.01, -10.06, -9.77, -9.77, -9.77, -9.77, -9.8, -9.8, -10.12, -9.82, -10.13, -9.84, -9.84, -9.84, -9.49, -9.21, -8.87, -8.87, -8.59, -6.9, -5.2, -3.78, -3.84, -4.1, -4.05, -3.35, -2.33, -1.73, -0.55, 0.0, 0.0, 0.0, 0.0, 0.0, 0.0, 0.0, 0.0, 0.0, 0.0, 0.0, 0.57, 1.27, 1.8, 2.23, 2.86, 2.66, 1.63, 4.43, 6.64, 7.06, 6.08, 4.29, 4.29, 4.02, 4.02, 2.8, 2.82, 1.32, 0.0, -3.55, -4.42, -3.55, -3.72, -2.8, -1.84, -1.05, 0.0, 1.03, 1.84, 2.99, 2.99, -1.99, -4.43, -4.4, -1.2, -0.0, 2.4, 3.58, 4.47, 5.09, 5.51, 6.17, 6.2, 6.02, 6.2, 6.2, 6.64, 6.64, 5.81, 2.53, 2.23, 2.97, 3.13, 2.97, 2.98, 2.53, 2.53, -10.01, -10.01, -9.72, -10.06, -9.77, -9.77, -9.77, -9.8, -9.8, -10.12, -9.82, -9.82, -9.84, -9.84, -9.5, -9.5, -9.21, -8.87, -8.59, -8.22, -7.31, -5.8, -4.02, -3.49, -2.75, -3.21, -3.4, -3.35, -2.21, -1.73, -1.16, -0.57, 0.0, 0.0, 0.0, 0.0, 0.0, 0.0, 0.0, 0.0, 0.0, 0.57, 1.11, 1.13, 1.6, 1.8, 3.0, 4.02, 5.72, 7.06, 6.52, 5.37, 4.29, 4.29, 4.02, 3.0, 2.99, 2.8, 2.82, 1.63, -2.76, -5.58, -5.15, -4.89, -2.95, 0.0, 2.2, 3.0, 2.8, 1.84, 0.0, 3.48, -0.0, -2.99, -4.11, -2.0, -0.0, 4.4, 5.09, 4.38, 4.92, 4.92, 5.36, 5.75, 6.02, 6.2, 6.64, 6.64, 6.45, 5.94, 3.16, 0.88, 1.13, 1.9, 2.68, 2.68, 2.4, 2.4, -10.01, -10.01, -9.72, -9.72, -9.72, -9.77, -9.77, -9.8, -9.8, -9.8, -9.82, -9.82, -9.84, -9.5, -9.5, -9.21, -8.86, -8.87, -8.59, -8.23, -7.57, -6.9, -5.8, -4.05, -3.3, -2.89, -2.75, -2.92, -2.73, -2.23, -1.63, -1.14, -0.61, -0.57, -0.57, 0.0, 0.0, 0.0, 0.0, 0.0, 0.0, 0.57, 0.57, 1.13, 1.13, 1.13, 1.11, 2.2, 3.49, 3.48, 3.73, 5.37, 4.29, 4.29, 4.29, 3.0, 2.8, 1.99, 3.0, 3.0, 0.0, -3.16, -4.29, -3.72, 1.9, 4.98, 6.16, 5.49, 3.97, 0.0, -0.84, 0.0, 0.0, -4.29, -3.79, -1.08, 0.98, 3.16, 4.84, 4.6, 4.66, 4.85, 5.36, 5.36, 6.17, 6.17, 6.02, 6.45, 6.0, 5.75, 4.98, 1.13, -0.0, 1.27, 1.9, 2.24, 2.68, 2.68, -10.01, -10.01, -10.01, -9.72, -9.72, -9.77, -9.77, -9.19, -9.5, -9.8, -9.82, -9.82, -9.21, -9.5, -9.5, -8.86, -8.59, -8.59, -8.59, -8.23, -7.96, -7.16, -6.25, -5.36, -4.54, -3.45, -2.86, -2.73, -2.26, -2.26, -1.63, -1.65, -1.04, -1.05, -1.07, -0.55, -0.55, 0.0, 0.0, 0.0, 0.0, 0.0, 0.51, 0.57, 0.51, 0.59, 0.57, 1.23, 1.76, 2.23, 2.84, 2.84, 4.74, 5.72, 5.37, 4.29, 3.0, 1.52, 2.8, 3.2, 2.66, 0.0, 0.0, 1.4, 5.36, 8.0, 7.2, 6.18, 2.64, 0.0, -0.89, -1.26, -0.89, -4.02, -4.11, -2.99, -0.0, 1.66, 3.22, 4.11, 4.98, 5.09, 4.92, 5.36, 5.36, 6.2, 6.45, 6.0, 6.0, 5.34, 5.6, 3.13, 2.53, 2.23, 1.98, 3.2, 2.68, 2.68, -9.66, -9.66, -9.66, -9.72, -9.72, -9.46, -9.48, -9.48, -9.5, -9.5, -9.21, -9.5, -9.5, -9.21, -9.21, -8.86, -8.59, -8.59, -8.23, -8.23, -7.85, -7.32, -6.92, -6.27, -5.17, -4.54, -3.91, -2.83, -2.89, -2.26, -1.73, -1.73, -1.73, -1.73, -1.73, -1.76, -1.8, -1.05, -0.61, 0.0, 0.0, 0.0, 0.0, 0.57, 0.0, 0.0, 0.0, 0.0, 1.16, 1.88, 2.53, 2.79, 3.14, 3.09, 4.43, 3.47, 2.66, 3.0, 3.91, 2.8, 1.58, 1.73, 1.49, 4.29, 8.41, 7.85, 7.2, 4.42, 2.82, 0.89, 0.0, -0.84, -0.89, -1.84, -4.47, -4.11, -1.98, -0.0, 1.99, 2.99, 4.11, 4.6, 4.85, 4.92, 5.36, 5.36, 5.94, 6.0, 6.0, 6.36, 6.02, 5.75, 5.36, 5.36, 3.9, 2.97, 2.24, 2.24, -9.66, -9.66, -9.66, -9.66, -9.46, -9.46, -9.17, -9.48, -9.19, -9.5, -9.21, -9.5, -9.5, -9.21, -8.86, -8.86, -8.59, -8.23, -8.23, -7.96, -7.59, -7.59, -6.94, -6.53, -5.86, -5.2, -4.54, -4.57, -3.94, -2.83, -2.21, -2.37, -2.23, -1.71, -1.71, -1.73, -1.76, -1.65, -1.05, -0.61, 0.0, 0.0, 0.0, 0.0, 0.0, -1.58, -1.84, 0.0, 0.0, 1.9, 2.5, 2.79, 2.79, 2.79, 2.23, 2.99, 3.0, 4.02, 4.89, 3.47, 0.95, 0.0, 0.89, 5.49, 8.06, 8.63, 5.24, 3.4, 0.94, 0.0, 0.0, -0.89, -1.84, -1.67, -1.73, -1.6, -0.0, -0.0, -0.0, 0.88, 2.76, 3.14, 3.53, 4.47, 4.47, 4.47, 5.09, 5.6, 5.94, 6.02, 6.45, 6.45, 6.45, 5.59, 4.85, 3.58, 2.24, 2.24, -9.66, -9.66, -9.42, -9.42, -9.13, -9.46, -9.17, -9.48, -9.48, -9.19, -9.21, -9.21, -9.5, -9.5, -8.86, -8.59, -8.87, -8.23, -8.23, -7.96, -7.59, -7.59, -6.94, -6.53, -6.29, -5.64, -5.89, -5.23, -4.38, -3.45, -2.83, -2.86, -2.33, -2.21, -2.21, -1.71, -1.73, -1.63, -1.65, -1.05, -0.61, 0.0, 0.0, 0.0, 0.0, -0.53, -2.68, -2.24, 0.0, 1.26, 2.15, 2.79, 2.79, 2.53, 2.23, 2.23, 2.8, 4.74, 4.43, 3.91, 0.95, 0.0, 1.84, 6.55, 8.17, 6.79, 6.01, 3.6, 0.0, -0.84, -1.75, -1.75, -1.84, -1.67, -1.75, 0.89, 5.4, 3.16, -0.0, -0.0, 0.96, 1.88, 2.4, 2.68, 4.02, 4.02, 4.38, 4.98, 5.51, 5.51, 5.51, 5.51, 5.2, 5.75, 5.2, 4.15, 2.8, 2.8, -9.37, -9.37, -9.42, -9.42, -9.42, -9.13, -9.46, -9.17, -9.48, -9.19, -9.19, -9.21, -9.21, -8.87, -8.87, -8.87, -8.59, -8.23, -7.96, -7.96, -7.59, -7.33, -6.96, -6.96, -6.31, -6.31, -5.67, -5.23, -4.8, -4.12, -3.45, -3.49, -2.83, -2.86, -2.21, -2.23, -2.23, -1.73, -1.76, -1.65, -1.16, -0.55, -0.55, 0.0, 0.55, 0.0, -3.39, -2.6, -0.0, 1.7, 2.5, 2.79, 2.79, 2.51, 2.23, 2.23, 1.84, 2.51, 3.63, 2.99, 0.95, 0.89, 3.55, 6.82, 6.11, 5.24, 5.24, 4.6, 0.89, -1.96, -3.4, -2.67, -1.84, -1.75, -1.84, 0.95, 6.0, 6.71, 2.48, -0.0, -0.0, 0.53, 1.24, 1.7, 2.24, 3.47, 3.47, 3.6, 3.22, 2.84, 2.84, 4.4, 4.22, 5.6, 4.84, 4.22, 3.6, 3.6, -9.37, -9.37, -9.08, -9.42, -9.42, -9.13, -9.46, -9.17, -9.17, -9.19, -9.19, -9.5, -9.21, -8.87, -8.87, -8.87, -8.59, -8.23, -7.96, -7.96, -7.59, -7.6, -7.33, -6.96, -6.31, -6.31, -5.67, -5.26, -5.04, -4.6, -4.6, -3.94, -3.3, -2.83, -2.83, -2.33, -2.21, -2.23, -2.26, -1.76, -1.67, -1.16, -1.19, -0.55, -0.55, -0.89, -0.98, 0.0, 0.95, 2.15, 2.53, 2.23, 2.23, 2.23, 2.23, 2.23, 1.84, 1.84, 1.84, 1.99, 1.72, 1.73, 4.26, 5.24, 4.26, 3.77, 3.0, 3.4, 3.0, 0.0, -1.05, 0.0, 0.89, 0.89, 0.0, 0.0, 4.92, 6.64, 5.73, 1.08, -0.88, -0.79, -0.0, -0.0, 0.89, 0.95, 0.57, 1.6, 1.8, 0.98, 0.99, 2.21, 3.6, 4.22, 4.54, 4.22, 3.6, 3.6, -9.37, -9.37, -9.37, -9.08, -9.42, -9.13, -9.13, -9.17, -9.17, -9.48, -9.19, -9.19, -9.19, -8.59, -8.59, -8.59, -8.59, -8.23, -7.96, -8.24, -7.6, -7.6, -7.33, -6.97, -6.97, -6.33, -5.69, -5.7, -5.72, -5.06, -5.29, -5.29, -4.4, -3.94, -3.49, -2.83, -2.86, -2.71, -2.23, -2.26, -1.65, -1.67, -1.16, -1.07, -1.7, -1.12, 0.0, 0.59, 1.73, 1.76, 2.22, 2.23, 1.6, 1.84, 1.6, 1.8, 1.8, 1.6, 1.33, 1.13, 1.98, 2.82, 3.6, 3.09, 2.54, 1.84, 0.83, 0.0, 1.4, 1.49, 3.0, 3.55, 4.0, 2.7, 0.0, 0.0, 3.58, 4.98, 4.6, 1.8, -0.88, -1.66, -1.8, -0.71, -0.63, -0.95, -0.71, 0.0, 0.0, 0.0, 0.0, 1.58, 3.39, 4.0, 4.19, 4.22, 3.6, 3.6, -9.02, -9.02, -9.37, -9.08, -9.08, -9.42, -9.13, -9.13, -9.17, -9.17, -8.88, -9.19, -8.87, -8.87, -8.87, -8.59, -8.59, -8.24, -8.24, -8.24, -7.6, -7.6, -7.61, -6.97, -6.97, -6.33, -6.08, -5.95, -5.7, -6.7, -5.1, -5.09, -5.08, -4.42, -3.97, -3.49, -3.32, -2.86, -2.89, -2.4, -2.12, -1.65, -1.67, -1.67, -1.67, -1.12, 0.0, 0.0, 1.12, 1.14, 1.19, 1.11, 1.13, 1.13, 1.6, 1.8, 1.27, 1.8, 1.27, 1.13, 1.23, 2.82, 2.54, 2.51, 1.84, 0.94, 0.0, 0.0, 0.0, 1.4, 3.45, 4.34, 2.69, 0.85, 0.0, 0.0, 1.99, 4.02, 2.68, 0.98, -0.98, -2.68, -2.41, -2.53, -2.12, -1.79, -1.9, -1.84, 0.0, 0.0, 0.0, 1.79, 3.13, 3.58, 4.0, 4.29, 4.0, 4.0, -9.02, -9.02, -9.02, -9.37, -9.08, -9.08, -9.13, -8.85, -8.56, -8.87, -8.87, -8.58, -8.58, -8.87, -8.87, -8.58, -8.24, -8.24, -8.24, -8.24, -7.96, -7.33, -7.61, -6.97, -6.71, -6.33, -6.08, -6.34, -6.33, -5.06, -4.45, -4.47, -4.73, -4.45, -4.44, -3.97, -3.32, -3.52, -2.71, -2.73, -2.26, -2.29, -2.14, -1.8, -1.8, -1.8, -1.12, 0.0, 0.0, 0.0, 0.61, 0.57, 0.66, 1.13, 1.13, 1.27, 1.11, 1.11, 1.11, 1.11, 2.66, 2.66, 2.66, 2.82, 0.95, 0.89, 0.0, 0.0, 0.0, 1.4, 2.54, 2.58, 1.33, 0.0, 0.0, 0.85, 1.75, 2.2, 1.2, -0.0, -0.0, -1.98, -2.84, -2.53, -2.6, -2.68, -2.91, -2.84, -1.84, -0.88, 0.0, 1.9, 2.21, 3.13, 3.47, 4.22, 4.57, 4.57, -9.3, -9.3, -9.02, -9.02, -9.08, -9.08, -9.08, -8.85, -8.85, -8.87, -8.87, -8.87, -8.87, -8.87, -8.87, -8.58, -8.24, -8.24, -8.24, -8.24, -7.96, -7.61, -7.33, -6.97, -6.98, -6.98, -6.61, -6.34, -6.08, -5.7, -4.66, -3.81, -4.08, -4.08, -4.46, -4.45, -4.0, -3.8, -3.35, -2.89, -2.92, -2.26, -2.29, -2.14, -1.65, -1.65, -1.65, -1.12, -0.57, 0.0, 0.0, 0.0, 0.57, 0.59, 0.59, 1.27, 1.11, 1.11, 1.23, 1.23, 1.23, 2.66, 2.66, 2.66, 1.49, 1.25, 0.83, 0.89, 0.94, 0.84, 1.65, 1.47, 1.33, 0.85, 0.0, 0.82, 1.76, 0.89, 0.0, -0.0, -0.0, -1.2, -2.21, -1.98, -2.53, -3.07, -3.39, -3.79, -1.99, -0.96, 0.0, 1.4, 2.23, 2.21, 3.13, 3.9, 4.22, 4.22, -9.3, -9.3, -9.02, -9.02, -9.02, -9.08, -9.08, -8.85, -8.85, -8.85, -9.17, -9.17, -8.87, -9.17, -9.17, -8.87, -7.96, -8.24, -8.24, -7.96, -7.96, -7.61, -7.33, -6.97, -6.98, -6.98, -6.61, -6.34, -6.34, -5.7, -5.06, -4.42, -4.03, -3.83, -3.83, -4.05, -4.05, -3.81, -3.37, -3.37, -2.92, -2.75, -2.29, -2.29, -2.29, -2.29, -2.29, -1.65, -1.14, -0.59, -0.54, 0.0, 0.0, 0.0, 0.57, 0.57, 0.57, 0.57, 0.55, 1.08, 1.08, 1.23, 1.4, 0.95, 0.89, 1.4, 1.84, 0.89, 0.89, 0.0, 0.0, 0.94, 1.22, 0.82, 0.0, 0.0, 0.0, 0.0, -2.2, -1.2, -0.0, -1.0, -1.2, -2.21, -2.98, -3.47, -3.9, -1.08, 0.0, 0.0, 0.0, 2.53, 2.23, 2.84, 2.4, 3.13, 4.0, 4.0, -8.73, -8.73, -9.08, -9.02, -9.02, -9.08, -9.08, -9.13, -9.13, -9.13, -9.13, -9.17, -9.46, -9.17, -9.17, -8.87, -7.96, -8.24, -8.24, -7.96, -8.24, -7.61, -7.33, -7.61, -6.98, -6.98, -6.7, -6.34, -6.34, -5.7, -5.7, -5.06, -4.42, -3.8, -3.81, -3.4, -3.83, -3.83, -3.83, -3.4, -3.4, -2.96, -2.29, -2.69, -2.8, -3.21, -3.21, -3.0, -2.32, -1.7, -1.07, -0.55, 0.0, 0.0, 0.0, 0.57, 0.57, 0.57, 0.55, 0.55, 0.55, 0.55, 1.4, 0.95, 0.89, 1.4, 0.89, 0.0, 0.0, 0.0, 0.0, 0.0, 0.0, 1.18, 0.0, -0.85, -0.89, -1.75, -1.99, -1.2, -1.13, -1.2, -2.4, -1.9, -2.4, -2.68, -1.58, 0.0, 0.0, 0.0, 2.21, 2.84, 3.16, 2.84, 2.8, 2.24, 2.68, 3.39, -8.73, -8.73, -8.73, -8.78, -9.02, -9.37, -9.08, -9.08, -9.13, -9.13, -9.13, -9.13, -9.46, -9.46, -9.17, -9.17, -8.87, -8.24, -8.24, -7.96, -7.95, -7.61, -7.61, -7.32, -6.98, -6.98, -6.7, -6.34, -6.08, -5.7, -5.7, -5.46, -5.06, -4.66, -4.0, -3.37, -3.4, -3.4, -3.42, -3.64, -3.64, -3.42, -2.77, -2.69, -2.32, -3.22, -3.85, -4.12, -3.47, -2.36, -1.73, -1.08, -0.57, 0.0, 0.0, 0.0, 0.57, 0.57, 0.55, 0.55, 0.55, 0.55, 1.4, 0.89, 0.0, 0.0, 0.0, 0.0, -0.84, -0.84, 0.0, 0.0, 0.0, 0.0, 0.0, 0.0, -2.47, -2.57, -2.0, -1.4, -1.98, -2.21, -1.9, -1.2, -1.58, -1.79, 0.0, 0.0, 0.0, 0.0, 2.8, 3.35, 2.48, 2.53, 2.8, 2.24, 1.79, 2.68, -8.73, -8.73, -8.73, -8.78, -9.02, -9.02, -9.08, -9.08, -9.42, -9.13, -9.13, -9.13, -9.46, -9.46, -9.46, -9.17, -8.87, -8.56, -7.96, -8.24, -7.95, -7.61, -7.61, -7.32, -6.98, -6.98, -6.7, -6.34, -6.08, -5.7, -5.98, -5.72, -5.72, -5.32, -4.66, -4.0, -3.56, -3.4, -3.4, -3.42, -3.42, -3.42, -4.1, -2.77, -2.69, -2.8, -3.79, -4.29, -4.07, -2.86, -2.22, -1.27, -0.59, 0.0, 0.0, 0.0, 0.0, 0.55, 0.55, 0.61, 0.55, 0.55, 0.61, 0.0, 0.0, 0.0, 0.0, 0.0, 0.0, 0.0, 0.0, 0.0, 0.0, 0.0, 0.0, 0.0, -1.75, -3.72, -3.58, -1.13, -1.74, -2.21, -1.9, -1.9, -2.24, -1.58, -1.4, -1.27, -1.08, 0.0, 3.13, 3.39, 2.23, 2.53, 2.21, 2.68, 1.79, 1.79, -8.73, -8.73, -8.73, -8.73, -8.78, -9.02, -9.08, -9.08, -9.08, -9.42, -9.42, -9.42, -9.46, -9.46, -9.46, -9.46, -8.56, -8.56, -8.24, -8.24, -7.95, -7.61, -7.61, -7.32, -6.98, -6.98, -6.7, -6.34, -6.35, -6.35, -5.98, -5.72, -5.72, -5.32, -5.08, -4.66, -4.0, -4.03, -3.37, -3.4, -3.42, -3.84, -4.1, -3.84, -3.4, -3.63, -2.23, -2.91, -3.32, -2.79, -1.88, -1.16, -0.61, 0.0, 0.0, 0.0, 0.0, 0.0, 0.0, 0.0, 0.0, 0.0, 0.0, 0.0, 0.0, 0.0, 0.0, 0.0, 0.0, 0.0, 0.0, 0.0, -1.26, -1.26, 0.0, 1.47, -1.19, -4.82, -3.49, -2.48, -0.99, -1.4, -1.4, -2.4, -2.68, -2.53, -3.16, -2.0, -1.27, 0.0, 2.8, 3.58, 3.39, 2.53, 1.9, 2.68, 2.24, 2.24, -8.73, -8.73, -8.73, -8.73, -8.78, -9.02, -9.37, -9.08, -9.08, -9.42, -9.42, -9.66, -9.42, -9.13, -9.13, -9.13, -8.85, -8.56, -8.24, -7.95, -7.95, -7.61, -7.61, -7.32, -6.98, -6.98, -6.7, -6.7, -6.35, -6.35, -6.35, -5.72, -5.72, -5.72, -5.08, -5.08, -4.66, -4.44, -4.03, -3.37, -3.4, -4.08, -3.84, -4.47, -4.05, -2.89, -1.7, -1.16, -1.9, -1.9, -1.2, -0.53, -0.61, 0.0, 0.0, 0.0, 0.0, 0.0, 0.0, 0.0, 0.0, 0.0, 0.0, 0.0, 1.4, 1.49, 1.49, 0.0, 0.83, 0.84, 0.0, -0.89, -2.58, -2.69, -1.33, 0.0, 0.0, -2.48, -2.99, -2.4, -0.98, -0.99, -1.2, -2.0, -2.4, -2.23, -2.0, -2.48, -1.13, 0.0, 3.13, 4.02, 4.02, 3.13, 2.24, 0.0, 0.0, 0.0, -8.73, -8.73, -8.73, -8.73, -8.73, -9.02, -9.02, -9.37, -9.37, -9.08, -9.66, -9.66, -9.42, -9.42, -9.13, -9.13, -8.85, -8.56, -8.24, -7.95, -7.93, -7.61, -7.61, -7.32, -7.32, -6.98, -6.7, -6.98, -6.35, -6.35, -6.35, -5.98, -5.72, -5.72, -5.72, -5.08, -5.08, -4.66, -4.44, -4.03, -4.03, -4.05, -3.83, -4.08, -4.05, -3.37, -1.71, -1.2, -1.16, -1.08, -0.57, -0.57, 0.0, 0.0, 0.0, 0.0, 0.0, 0.0, 0.0, 0.0, 0.0, 0.0, 0.0, 0.0, 1.4, 2.82, 2.82, 1.25, 1.84, 0.94, 0.0, -1.84, -3.32, -3.49, -3.49, -1.75, 0.0, 0.96, 0.0, 0.0, -0.0, -0.87, -0.99, -1.58, -2.24, -1.4, -1.13, 0.0, 0.0, 1.9, 3.13, 4.02, 3.82, 2.24, 0.0, 0.0, 0.0, 0.0, -8.65, -8.65, -8.73, -8.73, -8.73, -9.02, -9.02, -9.02, -9.37, -9.37, -9.94, -9.66, -9.42, -9.42, -9.42, -8.53, -8.53, -8.53, -7.95, -8.24, -7.93, -7.61, -7.32, -7.32, -7.32, -6.98, -6.7, -6.98, -6.98, -6.35, -6.35, -6.35, -5.98, -5.72, -5.72, -5.46, -5.08, -5.08, -4.66, -4.44, -4.24, -4.03, -4.05, -4.05, -4.08, -3.83, -2.73, -2.23, -1.73, -1.1, -0.57, -0.58, 0.0, 0.0, 0.0, 0.0, 0.0, 0.0, 0.0, 0.0, 0.0, 0.0, 0.0, 0.0, 1.49, 2.82, 2.82, 1.84, 1.73, 0.0, -1.4, -2.83, -3.63, -3.49, -3.49, -1.68, 0.0, 1.62, 2.59, 2.57, 1.98, 0.0, -0.99, -1.2, -1.79, 0.0, 0.0, 0.0, 0.0, 2.21, 4.02, 1.9, 1.9, 0.0, 0.0, 0.0, 0.0, 0.0, -8.65, -8.65, -9.01, -8.73, -8.73, -9.3, -9.02, -9.02, -9.37, -9.37, -9.37, -9.37, -9.08, -9.08, -9.08, -8.82, -8.53, -8.53, -8.24, -8.24, -7.93, -7.61, -7.32, -7.32, -7.32, -6.98, -6.98, -6.98, -6.98, -6.98, -6.35, -6.35, -6.35, -5.98, -5.72, -5.72, -5.08, -5.08, -5.08, -4.44, -4.69, -4.69, -4.03, -4.05, -3.83, -4.08, -3.4, -2.92, -2.4, -1.73, -1.1, -1.12, -0.57, -0.58, -0.53, 0.0, 0.0, 0.0, 0.0, 0.0, 0.0, 0.0, 0.0, 0.0, 0.61, 1.25, 0.0, 0.0, 0.0, -0.89, -1.84, -2.54, -2.69, -2.57, -1.75, -0.81, 0.0, 0.85, 1.69, 3.25, 3.25, 0.94, -1.9, -0.99, -0.0, 0.0, 0.0, 0.0, 0.0, 2.84, 0.0, 0.0, 0.0, 0.0, 0.0, 0.0, 0.0, 0.0, -8.65, -8.65, -9.01, -8.73, -8.94, -9.3, -9.3, -9.02, -9.02, -9.37, -9.37, -9.37, -9.37, -9.08, -8.82, -8.82, -8.53, -8.53, -8.24, -8.24, -7.93, -7.32, -7.32, -7.6, -7.6, -7.6, -6.98, -6.98, -6.98, -6.98, -6.63, -6.35, -6.35, -6.35, -5.72, -5.72, -5.08, -5.08, -5.08, -5.34, -4.69, -4.69, -4.45, -4.03, -4.05, -3.83, -3.64, -3.42, -2.75, -2.26, -1.63, -1.76, -1.12, -0.53, -0.53, -0.59, -0.59, 0.0, 0.0, 0.0, 0.0, 0.0, 0.0, 0.0, 0.0, 0.0, 0.0, 0.0, -1.32, -1.84, -2.54, -2.54, -1.75, -1.67, -0.89, -0.81, 0.0, 0.0, 0.82, 1.76, 1.69, 1.68, 0.0, -1.9, -0.99, -1.58, -1.79, 0.0, 0.0, 1.9, 0.0, 0.0, 1.4, 1.9, 0.0, 0.0, 0.0, 0.0, -8.65, -8.65, -8.65, -9.21, -8.94, -8.94, -9.3, -9.3, -9.02, -9.02, -9.37, -9.02, -9.02, -8.78, -8.5, -8.82, -8.53, -8.24, -7.93, -7.93, -7.93, -7.6, -7.6, -7.6, -7.6, -7.6, -7.3, -7.3, -6.98, -6.98, -6.98, -6.34, -6.35, -6.35, -5.98, -5.72, -5.72, -5.08, -5.08, -5.08, -5.09, -4.69, -4.69, -4.45, -4.05, -4.05, -3.4, -3.42, -2.96, -2.77, -2.29, -1.76, -1.65, -1.12, -0.58, -0.53, -0.59, -0.59, -0.59, -0.59, -0.59, -0.54, 0.0, 0.0, 0.0, 0.0, 0.0, 0.0, 0.0, -0.84, -0.85, -0.89, -0.85, -0.89, -0.89, -0.81, 0.0, 0.0, 0.0, 0.85, 0.85, 0.85, 0.0, -2.68, -0.98, -0.0, -0.0, 0.0, 0.0, 0.0, 0.0, 1.6, 2.53, 2.53, 2.21, 0.0, 0.0, 0.0, -8.65, -8.65, -8.65, -9.01, -8.94, -8.94, -9.3, -9.3, -9.3, -9.3, -9.02, -9.02, -8.78, -8.78, -8.5, -8.5, -8.5, -7.93, -7.93, -7.93, -7.93, -7.6, -7.6, -7.6, -7.6, -7.6, -7.6, -7.6, -7.6, -7.3, -6.98, -6.98, -6.63, -6.35, -6.35, -5.72, -5.72, -5.32, -5.08, -5.08, -5.09, -4.69, -4.69, -4.45, -4.28, -4.05, -3.83, -3.64, -3.42, -2.77, -2.29, -2.29, -1.65, -1.8, -1.14, -1.05, -1.05, -0.53, -0.53, -0.53, -0.59, -0.54, -0.55, -0.57, -0.57, 0.0, 0.0, 0.83, 0.0, 0.0, -1.67, -1.75, -1.75, -1.75, -0.89, -0.89, -0.89, 0.0, 0.0, 0.0, 0.0, 0.85, 0.0, -3.82, -2.0, -0.0, -0.0, -0.0, 0.0, 0.0, 0.0, 1.9, 2.21, 1.4, 2.21, 3.13, 3.13, 3.13, -8.65, -8.65, -8.65, -8.65, -9.01, -8.94, -8.94, -9.3, -9.3, -9.3, -9.3, -8.78, -8.78, -8.78, -8.5, -8.5, -8.22, -8.22, -8.22, -8.22, -7.9, -7.6, -7.6, -7.9, -7.9, -7.9, -7.9, -7.9, -7.6, -7.6, -7.3, -6.98, -6.98, -6.35, -6.35, -5.98, -5.72, -5.72, -5.32, -5.08, -5.08, -4.69, -4.69, -4.45, -4.71, -4.05, -4.05, -3.64, -3.42, -2.96, -2.77, -2.29, -2.14, -1.67, -1.14, -1.14, -1.14, -1.14, -1.14, -1.14, -1.05, -1.16, -1.19, -1.23, -1.11, 0.0, 0.0, 0.89, 0.0, -0.89, -2.54, -3.45, -3.32, -2.57, -1.75, -0.85, -0.85, 0.0, 0.0, 0.0, 0.0, 0.0, 0.0, -2.48, -1.41, -0.0, -0.0, 0.0, 0.0, 0.0, 0.0, 0.0, 0.0, 0.0, 3.13, 3.58, 3.58, 3.58, -8.65, -8.55, -8.65, -8.65, -8.65, -8.65, -8.94, -8.94, -8.94, -8.73, -8.73, -8.45, -8.78, -8.78, -8.5, -8.5, -8.22, -8.22, -8.22, -8.22, -7.9, -7.9, -7.9, -7.9, -7.9, -7.9, -7.9, -7.9, -8.19, -7.59, -7.59, -7.59, -6.69, -6.69, -6.35, -6.35, -5.98, -5.72, -5.32, -5.32, -5.08, -5.08, -4.69, -4.45, -4.45, -4.05, -4.05, -3.83, -3.42, -3.42, -2.77, -2.77, -2.29, -1.8, -1.67, -1.67, -1.67, -1.14, -1.14, -1.14, -1.14, -1.16, -1.19, -1.08, -1.23, -0.55, 0.0, 0.0, 0.0, -0.95, -1.96, -3.6, -5.36, -4.96, -2.57, -1.75, -0.85, 0.0, 0.0, 0.0, 0.0, 0.0, 0.0, -1.19, -0.0, -0.0, -0.0, 0.0, 0.0, 1.58, 0.0, 0.0, 0.0, 2.68, 3.58, 4.02, 4.02, 4.02, -8.55, -8.55, -8.29, -8.29, -8.65, -8.65, -9.01, -8.94, -8.73, -8.73, -8.73, -8.45, -8.78, -8.78, -8.5, -8.5, -8.22, -8.22, -7.9, -7.9, -7.9, -7.9, -7.9, -7.9, -8.19, -8.19, -8.19, -8.19, -8.19, -7.59, -7.59, -7.27, -6.97, -6.97, -6.97, -6.35, -6.35, -5.72, -5.72, -5.06, -5.32, -5.08, -5.08, -4.69, -4.45, -4.71, -4.05, -4.08, -4.08, -3.42, -3.42, -3.21, -2.77, -2.32, -2.32, -1.67, -1.67, -1.67, -1.67, -1.67, -1.67, -1.84, -1.7, -1.73, -1.73, -1.73, -1.72, -0.89, 0.0, 0.0, -0.95, -2.67, -4.68, -5.53, -4.34, -3.63, -2.69, -1.84, -0.94, -0.94, -0.89, 0.0, -0.89, -0.0, -0.0, -0.0, -0.0, 0.0, 0.0, 1.9, 1.9, 1.58, 3.13, 3.13, 4.02, 4.24, 4.24, 4.24, -8.55, -8.55, -8.55, -8.29, -8.29, -8.65, -8.65, -8.73, -8.73, -8.73, -8.73, -8.45, -8.45, -8.78, -8.5, -8.5, -8.22, -7.9, -7.9, -7.9, -7.9, -7.9, -7.9, -8.19, -8.19, -8.19, -8.19, -8.19, -8.19, -7.59, -7.59, -7.27, -7.27, -6.67, -6.67, -6.67, -6.35, -6.08, -5.72, -5.72, -5.06, -5.32, -5.08, -5.08, -4.69, -4.71, -4.46, -4.46, -4.08, -4.08, -3.84, -3.42, -3.0, -3.0, -2.32, -2.32, -2.32, -2.32, -2.32, -2.32, -2.32, -2.36, -1.7, -1.73, -1.73, -2.4, -1.7, -0.59, 0.0, 0.0, -0.94, -1.75, -1.84, -2.82, -2.82, -5.1, -3.8, -2.54, -1.75, -1.75, -0.89, -0.89, -1.27, -0.0, -0.0, -0.0, -0.0, -0.0, 0.0, 0.0, 1.9, 2.4, 3.2, 3.58, 3.82, 3.82, 3.82, 3.82, -8.0, -8.0, -8.37, -8.08, -8.08, -8.29, -8.65, -8.65, -8.38, -8.73, -8.73, -8.73, -8.45, -8.45, -8.78, -8.22, -8.22, -7.9, -7.9, -7.9, -7.6, -7.6, -7.9, -8.19, -8.19, -8.19, -8.19, -8.19, -8.19, -7.59, -7.59, -7.27, -7.27, -6.95, -6.95, -6.95, -6.35, -6.35, -6.08, -6.35, -5.98, -5.72, -5.32, -5.08, -5.34, -5.09, -4.71, -4.46, -4.73, -4.47, -4.08, -3.84, -3.45, -3.0, -3.0, -2.8, -2.32, -2.32, -2.32, -2.32, -2.32, -2.16, -2.18, -2.4, -2.4, -2.4, -1.7, -1.16, -0.89, -0.89, -0.89, -0.89, 0.0, 0.0, 0.0, 0.0, -3.6, -2.54, -1.84, -1.75, -0.89, -0.94, -2.48, -2.2, -0.0, -0.0, -0.0, -0.0, -0.0, 0.0, 1.79, 1.58, 2.8, 3.13, 3.2, 2.8, 2.8, 2.8, -8.0, -8.0, -8.0, -8.08, -8.08, -8.08, -8.65, -8.65, -8.38, -8.38, -8.73, -8.73, -8.45, -8.45, -8.19, -8.19, -7.9, -7.9, -7.9, -7.9, -7.6, -7.6, -8.19, -8.19, -8.19, -8.19, -8.19, -8.19, -7.86, -7.86, -7.59, -7.27, -7.55, -6.95, -6.95, -6.95, -6.65, -6.35, -6.35, -6.35, -6.08, -5.98, -5.72, -5.72, -5.08, -5.34, -5.09, -5.1, -5.1, -4.73, -4.47, -4.08, -4.1, -3.45, -3.45, -3.0, -3.0, -3.0, -2.77, -3.0, -2.8, -2.32, -2.36, -2.18, -2.18, -2.18, -2.4, -1.88, -1.7, -1.84, -1.65, -0.89, 0.0, 0.0, 0.0, 0.0, -0.85, -1.67, -1.75, -1.67, -0.89, 0.0, -1.05, -1.6, -0.0, -0.0, -0.0, -0.0, -0.0, -0.0, 0.0, 1.79, 2.24, 3.13, 3.2, 3.2, 3.2, 3.2, -8.0, -8.0, -8.0, -8.0, -8.08, -8.08, -8.08, -8.44, -8.38, -8.38, -8.38, -8.73, -8.45, -8.19, -8.19, -8.19, -7.9, -7.9, -7.9, -7.6, -7.6, -7.59, -8.19, -8.19, -8.19, -8.19, -8.19, -8.19, -7.86, -7.86, -7.27, -7.55, -7.55, -6.95, -6.95, -6.95, -6.95, -6.35, -6.35, -6.35, -6.35, -6.08, -6.08, -5.72, -5.72, -5.46, -5.72, -5.09, -5.1, -5.1, -4.73, -4.47, -3.84, -3.84, -3.42, -3.42, -3.21, -3.21, -2.77, -2.77, -3.0, -2.8, -2.82, -2.36, -2.18, -2.18, -2.4, -2.4, -2.4, -2.51, -1.84, -1.84, -0.84, 0.0, 0.0, -0.89, -1.75, -1.67, -1.75, -1.67, 0.0, 0.0, 0.0, 0.0, -0.0, -0.0, -0.0, -0.0, -0.0, -0.0, -0.0, 2.24, 2.24, 2.8, 3.2, 2.53, 2.53, 2.53, -8.0, -8.0, -8.0, -8.0, -8.08, -8.08, -8.08, -8.08, -8.15, -8.38, -8.38, -8.38, -8.49, -8.19, -8.19, -8.19, -8.19, -8.19, -7.9, -7.9, -7.59, -7.59, -7.86, -8.19, -8.19, -8.19, -8.19, -8.19, -7.86, -7.59, -7.27, -7.55, -7.55, -6.95, -6.95, -6.95, -6.95, -6.67, -6.35, -6.35, -6.35, -6.35, -6.35, -6.35, -6.08, -5.72, -6.0, -5.72, -5.45, -5.36, -5.1, -4.47, -4.47, -4.08, -3.84, -3.84, -3.42, -3.42, -3.42, -3.42, -3.0, -2.8, -2.82, -2.82, -2.82, -2.82, -2.4, -2.4, -2.4, -2.82, -1.73, -1.73, -0.89, 0.0, -0.89, -1.65, -1.75, -1.75, -2.69, -0.89, 0.0, 0.0, 0.0, 0.89, 2.21, -0.0, -0.0, -0.0, -0.0, -0.0, 1.2, 1.2, 2.8, 3.2, 2.53, 2.53, 2.53, 2.53, -8.0, -8.0, -8.0, -8.0, -7.73, -8.08, -8.08, -8.15, -8.15, -8.38, -8.38, -8.15, -8.15, -7.86, -7.86, -7.86, -7.86, -7.86, -7.59, -7.59, -7.59, -7.59, -7.86, -7.86, -8.19, -8.19, -8.19, -7.86, -7.86, -7.59, -7.55, -7.55, -7.55, -6.95, -6.95, -6.95, -6.95, -6.67, -6.67, -6.35, -6.35, -6.35, -6.35, -6.35, -6.35, -6.35, -6.35, -5.72, -5.72, -5.72, -5.1, -5.1, -4.47, -4.47, -4.08, -4.08, -4.08, -4.08, -3.42, -3.42, -3.21, -2.8, -3.04, -2.82, -2.82, -2.82, -2.82, -2.84, -3.08, -2.16, -1.23, -0.94, 0.0, 0.0, 0.0, 0.0, -0.84, -0.89, 0.0, -0.89, 0.0, 0.0, 0.0, 0.0, 0.0, -0.0, -0.0, -0.0, -0.0, -0.0, -0.0, 1.13, 1.74, 2.84, 2.84, 2.84, 2.84, 2.84, -8.0, -8.0, -8.0, -8.0, -7.73, -8.08, -8.08, -8.15, -8.15, -8.15, -8.15, -8.15, -8.15, -8.15, -7.86, -7.86, -7.86, -7.59, -7.59, -7.59, -7.59, -7.59, -7.59, -7.86, -8.19, -8.19, -7.86, -7.86, -7.86, -7.59, -7.55, -7.55, -7.55, -7.23, -6.95, -6.95, -6.67, -6.67, -6.67, -6.67, -6.35, -6.35, -6.35, -6.35, -6.35, -6.35, -6.35, -6.35, -6.06, -6.01, -5.72, -5.38, -5.1, -4.73, -4.73, -4.47, -4.08, -4.08, -4.08, -3.42, -3.42, -3.0, -3.04, -2.82, -2.82, -2.82, -2.82, -2.84, -2.84, -2.18, -1.67, -0.89, 0.0, 0.0, 0.0, 0.0, 0.0, 0.0, 0.0, 0.0, 0.0, 0.0, 0.0, 0.0, 0.0, -0.0, -1.03, -0.96, -0.81, -0.81, -0.0, -0.0, -0.0, 0.98, 1.8, 2.23, 2.23, 2.23, -7.64, -7.64, -8.0, -7.73, -7.73, -8.08, -8.08, -7.81, -7.81, -7.81, -7.81, -8.15, -8.15, -8.15, -7.88, -7.59, -7.59, -7.59, -7.59, -7.59, -7.59, -7.59, -7.59, -7.86, -7.86, -7.86, -7.86, -7.86, -7.86, -7.59, -7.55, -7.55, -7.55, -7.55, -7.55, -6.97, -6.97, -6.67, -6.67, -6.95, -6.95, -6.65, -6.35, -6.35, -6.35, -6.35, -6.35, -6.35, -6.06, -6.34, -5.72, -5.71, -5.38, -5.1, -5.1, -4.73, -4.73, -4.08, -4.08, -3.42, -3.42, -3.45, -3.22, -3.04, -3.47, -3.22, -2.82, -2.84, -2.84, -2.4, -2.4, -1.7, -0.54, 0.0, 0.0, 0.0, -0.89, 0.0, 0.0, 0.0, -0.84, -0.89, -0.89, 0.0, 0.0, -1.6, -1.84, -1.98, -1.84, -0.96, -0.0, -0.0, -0.0, 0.81, 1.83, 2.2, 2.2, 2.2, -7.64, -7.64, -8.0, -7.73, -7.73, -8.08, -8.08, -7.81, -7.81, -7.81, -7.81, -8.15, -8.15, -8.15, -7.88, -7.59, -7.59, -7.59, -7.59, -7.59, -7.59, -7.59, -7.59, -7.86, -7.86, -7.86, -7.86, -7.86, -7.86, -7.59, -7.55, -7.55, -7.55, -7.55, -7.55, -6.97, -6.97, -6.67, -6.67, -6.95, -6.95, -6.65, -6.35, -6.35, -6.35, -6.35, -6.35, -6.35, -6.06, -6.34, -5.72, -5.71, -5.38, -5.1, -5.1, -4.73, -4.73, -4.08, -4.08, -3.42, -3.42, -3.45, -3.22, -3.04, -3.47, -3.22, -2.82, -2.84, -2.84, -2.4, -2.4, -1.7, -0.54, 0.0, 0.0, 0.0, 0.0, 0.0, 0.0, 0.0, -0.84, -0.84, -0.84, 0.0, 0.0, -1.6, -2.2, -1.84, -1.84, -0.95, -0.0, -0.0, 0.96, 1.98, 2.8, 3.22, 3.22, 3.22]}]